www.cux-wetter.de
Wetterdaten: Samstag, 10.10.2015
Datum Zeit Temp. A. Feuchte A. Luftdruck Regen Wind Richtung Richtung Sonnenschein Solar Taupunkt Windchill Windben
10.10.2015 00:00 11,4 C 87 % 1023,1 hPa 0,0 l/m 5,9 km/h (2 Bft) SO 146 0 min 0 W/m 9,3 C 11,4 C 16,1 km/h (3 Bft)
10.10.2015 00:03 11,4 C 86 % 1023,1 hPa 0,0 l/m 6,2 km/h (2 Bft) S 173 0 min 0 W/m 9,1 C 11,4 C 9,7 km/h (2 Bft)
10.10.2015 00:06 11,3 C 86 % 1023,1 hPa 0,0 l/m 8,1 km/h (2 Bft) O 79 0 min 0 W/m 9,0 C 10,2 C 19,3 km/h (3 Bft)
10.10.2015 00:09 11,3 C 86 % 1023,1 hPa 0,0 l/m 5,0 km/h (1 Bft) SO 130 0 min 0 W/m 9,0 C 11,3 C 12,9 km/h (3 Bft)
10.10.2015 00:12 11,3 C 86 % 1023,1 hPa 0,0 l/m 6,2 km/h (2 Bft) SO 135 0 min 0 W/m 9,0 C 11,3 C 14,5 km/h (3 Bft)
10.10.2015 00:15 11,3 C 86 % 1023,2 hPa 0,0 l/m 7,0 km/h (2 Bft) O-SO 119 0 min 0 W/m 9,0 C 10,9 C 16,1 km/h (3 Bft)
10.10.2015 00:18 11,3 C 86 % 1023,2 hPa 0,0 l/m 6,9 km/h (2 Bft) SO 126 0 min 0 W/m 9,0 C 11,0 C 12,9 km/h (3 Bft)
10.10.2015 00:21 11,2 C 87 % 1023,2 hPa 0,0 l/m 3,4 km/h (1 Bft) O 79 0 min 0 W/m 9,1 C 11,2 C 6,4 km/h (2 Bft)
10.10.2015 00:24 11,2 C 87 % 1023,2 hPa 0,0 l/m 7,1 km/h (2 Bft) SO 131 0 min 0 W/m 9,1 C 10,7 C 16,1 km/h (3 Bft)
10.10.2015 00:27 11,2 C 87 % 1023,2 hPa 0,0 l/m 3,6 km/h (1 Bft) SO 140 0 min 0 W/m 9,1 C 11,2 C 12,9 km/h (3 Bft)
10.10.2015 00:30 11,2 C 87 % 1023,2 hPa 0,0 l/m 7,8 km/h (2 Bft) O-SO 107 0 min 0 W/m 9,1 C 10,2 C 16,1 km/h (3 Bft)
10.10.2015 00:33 11,2 C 87 % 1023,2 hPa 0,0 l/m 5,9 km/h (2 Bft) O 87 0 min 0 W/m 9,1 C 11,2 C 14,5 km/h (3 Bft)
10.10.2015 00:36 11,1 C 87 % 1023,3 hPa 0,0 l/m 5,5 km/h (2 Bft) S-SO 150 0 min 0 W/m 9,0 C 11,1 C 12,9 km/h (3 Bft)
10.10.2015 00:39 11,1 C 87 % 1023,2 hPa 0,0 l/m 4,1 km/h (1 Bft) SO 129 0 min 0 W/m 9,0 C 11,1 C 11,3 km/h (2 Bft)
10.10.2015 00:42 11,1 C 87 % 1023,3 hPa 0,0 l/m 6,3 km/h (2 Bft) S 185 0 min 0 W/m 9,0 C 11,1 C 20,9 km/h (4 Bft)
10.10.2015 00:45 11,1 C 87 % 1023,2 hPa 0,0 l/m 5,4 km/h (2 Bft) O-SO 119 0 min 0 W/m 9,0 C 11,1 C 14,5 km/h (3 Bft)
10.10.2015 00:48 11,1 C 87 % 1023,2 hPa 0,0 l/m 6,0 km/h (2 Bft) SO 132 0 min 0 W/m 9,0 C 11,1 C 14,5 km/h (3 Bft)
10.10.2015 00:51 11,0 C 87 % 1023,1 hPa 0,0 l/m 3,0 km/h (1 Bft) S-SO 150 0 min 0 W/m 8,9 C 11,0 C 11,3 km/h (2 Bft)
10.10.2015 00:54 11,0 C 87 % 1023,1 hPa 0,0 l/m 4,5 km/h (1 Bft) O-SO 108 0 min 0 W/m 8,9 C 11,0 C 11,3 km/h (2 Bft)
10.10.2015 00:57 10,9 C 87 % 1023,1 hPa 0,0 l/m 5,6 km/h (2 Bft) O-SO 123 0 min 0 W/m 8,8 C 10,9 C 17,7 km/h (3 Bft)
10.10.2015 01:00 10,9 C 87 % 1023,1 hPa 0,0 l/m 4,8 km/h (1 Bft) O-SO 111 0 min 0 W/m 8,8 C 10,9 C 11,3 km/h (2 Bft)
10.10.2015 01:03 10,9 C 87 % 1023,1 hPa 0,0 l/m 5,6 km/h (2 Bft) S-SO 157 0 min 0 W/m 8,8 C 10,9 C 16,1 km/h (3 Bft)
10.10.2015 01:06 10,9 C 87 % 1023,2 hPa 0,0 l/m 5,9 km/h (2 Bft) O-NO 74 0 min 0 W/m 8,8 C 10,9 C 19,3 km/h (3 Bft)
10.10.2015 01:09 10,9 C 87 % 1023,2 hPa 0,0 l/m 5,2 km/h (1 Bft) SO 132 0 min 0 W/m 8,8 C 10,9 C 12,9 km/h (3 Bft)
10.10.2015 01:12 10,9 C 87 % 1023,2 hPa 0,0 l/m 6,6 km/h (2 Bft) O-SO 116 0 min 0 W/m 8,8 C 10,8 C 14,5 km/h (3 Bft)
10.10.2015 01:15 10,8 C 86 % 1023,2 hPa 0,0 l/m 4,4 km/h (1 Bft) SO 140 0 min 0 W/m 8,6 C 10,8 C 9,7 km/h (2 Bft)
10.10.2015 01:18 10,8 C 86 % 1023,2 hPa 0,0 l/m 5,3 km/h (1 Bft) S-SO 166 0 min 0 W/m 8,6 C 10,8 C 12,9 km/h (3 Bft)
10.10.2015 01:21 10,8 C 86 % 1023,2 hPa 0,0 l/m 6,5 km/h (2 Bft) O 87 0 min 0 W/m 8,6 C 10,8 C 16,1 km/h (3 Bft)
10.10.2015 01:24 10,8 C 86 % 1023,2 hPa 0,0 l/m 3,9 km/h (1 Bft) O 82 0 min 0 W/m 8,6 C 10,8 C 11,3 km/h (2 Bft)
10.10.2015 01:27 10,8 C 86 % 1023,2 hPa 0,0 l/m 2,2 km/h (1 Bft) SO 132 0 min 0 W/m 8,6 C 10,8 C 4,8 km/h (1 Bft)
10.10.2015 01:30 10,8 C 86 % 1023,2 hPa 0,0 l/m 3,0 km/h (1 Bft) O-SO 103 0 min 0 W/m 8,6 C 10,8 C 9,7 km/h (2 Bft)
10.10.2015 01:33 10,8 C 86 % 1023,2 hPa 0,0 l/m 4,4 km/h (1 Bft) NO 48 0 min 0 W/m 8,6 C 10,8 C 11,3 km/h (2 Bft)
10.10.2015 01:36 10,8 C 86 % 1023,2 hPa 0,0 l/m 4,5 km/h (1 Bft) SO 138 0 min 0 W/m 8,6 C 10,8 C 9,7 km/h (2 Bft)
10.10.2015 01:39 10,8 C 86 % 1023,2 hPa 0,0 l/m 3,8 km/h (1 Bft) SO 143 0 min 0 W/m 8,6 C 10,8 C 8,0 km/h (2 Bft)
10.10.2015 01:42 10,8 C 87 % 1023,2 hPa 0,0 l/m 2,6 km/h (1 Bft) S-SO 168 0 min 0 W/m 8,7 C 10,8 C 6,4 km/h (2 Bft)
10.10.2015 01:45 10,7 C 87 % 1023,3 hPa 0,0 l/m 3,7 km/h (1 Bft) O 84 0 min 0 W/m 8,6 C 10,7 C 12,9 km/h (3 Bft)
10.10.2015 01:48 10,7 C 86 % 1023,3 hPa 0,0 l/m 6,2 km/h (2 Bft) O-SO 109 0 min 0 W/m 8,5 C 10,7 C 14,5 km/h (3 Bft)
10.10.2015 01:51 10,6 C 86 % 1023,3 hPa 0,0 l/m 4,1 km/h (1 Bft) O-NO 75 0 min 0 W/m 8,4 C 10,6 C 9,7 km/h (2 Bft)
10.10.2015 01:54 10,6 C 86 % 1023,3 hPa 0,0 l/m 2,0 km/h (1 Bft) O-NO 77 0 min 0 W/m 8,4 C 10,6 C 6,4 km/h (2 Bft)
10.10.2015 01:57 10,6 C 86 % 1023,3 hPa 0,0 l/m 3,8 km/h (1 Bft) N-NO 33 0 min 0 W/m 8,4 C 10,6 C 6,4 km/h (2 Bft)
10.10.2015 02:00 10,6 C 86 % 1023,3 hPa 0,0 l/m 6,0 km/h (2 Bft) N-NO 13 0 min 0 W/m 8,4 C 10,6 C 11,3 km/h (2 Bft)
10.10.2015 02:03 10,6 C 86 % 1023,3 hPa 0,0 l/m 2,3 km/h (1 Bft) S-SO 150 0 min 0 W/m 8,4 C 10,6 C 8,0 km/h (2 Bft)
10.10.2015 02:06 10,6 C 86 % 1023,3 hPa 0,0 l/m 2,7 km/h (1 Bft) S-SO 161 0 min 0 W/m 8,4 C 10,6 C 6,4 km/h (2 Bft)
10.10.2015 02:09 10,5 C 86 % 1023,3 hPa 0,0 l/m 2,2 km/h (1 Bft) SO 132 0 min 0 W/m 8,3 C 10,5 C 8,0 km/h (2 Bft)
10.10.2015 02:12 10,4 C 85 % 1023,3 hPa 0,0 l/m 3,9 km/h (1 Bft) O-SO 117 0 min 0 W/m 8,0 C 10,4 C 12,9 km/h (3 Bft)
10.10.2015 02:15 10,4 C 85 % 1023,3 hPa 0,0 l/m 3,9 km/h (1 Bft) NO 49 0 min 0 W/m 8,0 C 10,4 C 9,7 km/h (2 Bft)
10.10.2015 02:18 10,4 C 85 % 1023,3 hPa 0,0 l/m 4,3 km/h (1 Bft) S-SO 147 0 min 0 W/m 8,0 C 10,4 C 11,3 km/h (2 Bft)
10.10.2015 02:21 10,4 C 85 % 1023,4 hPa 0,0 l/m 2,2 km/h (1 Bft) SO 128 0 min 0 W/m 8,0 C 10,4 C 8,0 km/h (2 Bft)
10.10.2015 02:24 10,3 C 83 % 1023,4 hPa 0,0 l/m 5,6 km/h (2 Bft) S 188 0 min 0 W/m 7,5 C 10,3 C 12,9 km/h (3 Bft)
10.10.2015 02:27 10,3 C 83 % 1023,4 hPa 0,0 l/m 5,0 km/h (1 Bft) O-SO 109 0 min 0 W/m 7,5 C 10,3 C 12,9 km/h (3 Bft)
10.10.2015 02:30 10,2 C 83 % 1023,4 hPa 0,0 l/m 3,2 km/h (1 Bft) O-SO 107 0 min 0 W/m 7,4 C 10,2 C 9,7 km/h (2 Bft)
10.10.2015 02:33 10,2 C 83 % 1023,5 hPa 0,0 l/m 2,8 km/h (1 Bft) S-SO 161 0 min 0 W/m 7,4 C 10,2 C 8,0 km/h (2 Bft)
10.10.2015 02:36 10,2 C 82 % 1023,5 hPa 0,0 l/m 4,1 km/h (1 Bft) SO 130 0 min 0 W/m 7,3 C 10,2 C 9,7 km/h (2 Bft)
10.10.2015 02:39 10,1 C 82 % 1023,5 hPa 0,0 l/m 4,6 km/h (1 Bft) SO 131 0 min 0 W/m 7,2 C 10,1 C 11,3 km/h (2 Bft)
10.10.2015 02:42 10,1 C 82 % 1023,5 hPa 0,0 l/m 2,4 km/h (1 Bft) SO 138 0 min 0 W/m 7,2 C 10,1 C 4,8 km/h (1 Bft)
10.10.2015 02:45 10,0 C 83 % 1023,5 hPa 0,0 l/m 2,7 km/h (1 Bft) SO 136 0 min 0 W/m 7,2 C 10,0 C 4,8 km/h (1 Bft)
10.10.2015 02:48 9,9 C 82 % 1023,5 hPa 0,0 l/m 4,8 km/h (1 Bft) SO 138 0 min 0 W/m 7,0 C 9,9 C 8,0 km/h (2 Bft)
10.10.2015 02:51 9,9 C 83 % 1023,5 hPa 0,0 l/m 3,3 km/h (1 Bft) O-SO 121 0 min 0 W/m 7,2 C 9,9 C 9,7 km/h (2 Bft)
10.10.2015 02:54 9,9 C 83 % 1023,5 hPa 0,0 l/m 2,6 km/h (1 Bft) S-SO 156 0 min 0 W/m 7,2 C 9,9 C 9,7 km/h (2 Bft)
10.10.2015 02:57 9,9 C 82 % 1023,6 hPa 0,0 l/m 4,8 km/h (1 Bft) O-SO 109 0 min 0 W/m 7,0 C 9,9 C 11,3 km/h (2 Bft)
10.10.2015 03:00 9,8 C 82 % 1023,5 hPa 0,0 l/m 3,1 km/h (1 Bft) SO 126 0 min 0 W/m 6,9 C 9,8 C 6,4 km/h (2 Bft)
10.10.2015 03:03 9,8 C 82 % 1023,5 hPa 0,0 l/m 4,3 km/h (1 Bft) SO 136 0 min 0 W/m 6,9 C 9,8 C 11,3 km/h (2 Bft)
10.10.2015 03:06 9,8 C 81 % 1023,5 hPa 0,0 l/m 5,7 km/h (2 Bft) O-SO 117 0 min 0 W/m 6,7 C 9,8 C 16,1 km/h (3 Bft)
10.10.2015 03:09 9,8 C 81 % 1023,5 hPa 0,0 l/m 3,7 km/h (1 Bft) O-SO 104 0 min 0 W/m 6,7 C 9,8 C 6,4 km/h (2 Bft)
10.10.2015 03:12 9,8 C 81 % 1023,5 hPa 0,0 l/m 3,5 km/h (1 Bft) SO 128 0 min 0 W/m 6,7 C 9,8 C 6,4 km/h (2 Bft)
10.10.2015 03:15 9,8 C 81 % 1023,5 hPa 0,0 l/m 3,1 km/h (1 Bft) S-SO 153 0 min 0 W/m 6,7 C 9,8 C 6,4 km/h (2 Bft)
10.10.2015 03:18 9,8 C 82 % 1023,5 hPa 0,0 l/m 3,2 km/h (1 Bft) O-NO 70 0 min 0 W/m 6,9 C 9,8 C 8,0 km/h (2 Bft)
10.10.2015 03:21 9,7 C 83 % 1023,5 hPa 0,0 l/m 3,9 km/h (1 Bft) S 171 0 min 0 W/m 7,0 C 9,7 C 8,0 km/h (2 Bft)
10.10.2015 03:24 9,7 C 84 % 1023,6 hPa 0,0 l/m 3,2 km/h (1 Bft) O-SO 117 0 min 0 W/m 7,1 C 9,7 C 8,0 km/h (2 Bft)
10.10.2015 03:27 9,7 C 85 % 1023,6 hPa 0,0 l/m 3,0 km/h (1 Bft) SO 126 0 min 0 W/m 7,3 C 9,7 C 9,7 km/h (2 Bft)
10.10.2015 03:30 9,7 C 86 % 1023,6 hPa 0,0 l/m 3,8 km/h (1 Bft) NO 55 0 min 0 W/m 7,5 C 9,7 C 9,7 km/h (2 Bft)
10.10.2015 03:33 9,7 C 86 % 1023,6 hPa 0,0 l/m 3,0 km/h (1 Bft) O 82 0 min 0 W/m 7,5 C 9,7 C 6,4 km/h (2 Bft)
10.10.2015 03:36 9,6 C 87 % 1023,6 hPa 0,0 l/m 4,5 km/h (1 Bft) N 360 0 min 0 W/m 7,5 C 9,6 C 12,9 km/h (3 Bft)
10.10.2015 03:39 9,6 C 87 % 1023,5 hPa 0,0 l/m 2,7 km/h (1 Bft) NO 44 0 min 0 W/m 7,5 C 9,6 C 8,0 km/h (2 Bft)
10.10.2015 03:42 9,6 C 88 % 1023,5 hPa 0,0 l/m 2,0 km/h (1 Bft) O-SO 109 0 min 0 W/m 7,7 C 9,6 C 6,4 km/h (2 Bft)
10.10.2015 03:45 9,6 C 88 % 1023,6 hPa 0,0 l/m 2,8 km/h (1 Bft) S-SO 156 0 min 0 W/m 7,7 C 9,6 C 6,4 km/h (2 Bft)
10.10.2015 03:48 9,5 C 88 % 1023,5 hPa 0,0 l/m 3,4 km/h (1 Bft) O 82 0 min 0 W/m 7,6 C 9,5 C 9,7 km/h (2 Bft)
10.10.2015 03:51 9,5 C 89 % 1023,5 hPa 0,0 l/m 2,7 km/h (1 Bft) O 88 0 min 0 W/m 7,8 C 9,5 C 9,7 km/h (2 Bft)
10.10.2015 03:54 9,5 C 89 % 1023,5 hPa 0,0 l/m 3,1 km/h (1 Bft) O-NO 78 0 min 0 W/m 7,8 C 9,5 C 6,4 km/h (2 Bft)
10.10.2015 03:57 9,5 C 89 % 1023,5 hPa 0,0 l/m 1,9 km/h (1 Bft) O-SO 107 0 min 0 W/m 7,8 C 9,5 C 6,4 km/h (2 Bft)
10.10.2015 04:00 9,4 C 89 % 1023,5 hPa 0,0 l/m 4,3 km/h (1 Bft) O-SO 103 0 min 0 W/m 7,7 C 9,4 C 8,0 km/h (2 Bft)
10.10.2015 04:03 9,4 C 89 % 1023,5 hPa 0,0 l/m 3,3 km/h (1 Bft) O 96 0 min 0 W/m 7,7 C 9,4 C 8,0 km/h (2 Bft)
10.10.2015 04:06 9,4 C 89 % 1023,5 hPa 0,0 l/m 3,7 km/h (1 Bft) O-SO 115 0 min 0 W/m 7,7 C 9,4 C 11,3 km/h (2 Bft)
10.10.2015 04:09 9,3 C 89 % 1023,5 hPa 0,0 l/m 2,9 km/h (1 Bft) O-SO 123 0 min 0 W/m 7,6 C 9,3 C 9,7 km/h (2 Bft)
10.10.2015 04:12 9,3 C 89 % 1023,4 hPa 0,0 l/m 2,1 km/h (1 Bft) O-NO 78 0 min 0 W/m 7,6 C 9,3 C 4,8 km/h (1 Bft)
10.10.2015 04:15 9,3 C 89 % 1023,4 hPa 0,0 l/m 3,1 km/h (1 Bft) O-NO 69 0 min 0 W/m 7,6 C 9,3 C 6,4 km/h (2 Bft)
10.10.2015 04:18 9,2 C 89 % 1023,4 hPa 0,0 l/m 2,1 km/h (1 Bft) SO 146 0 min 0 W/m 7,5 C 9,2 C 6,4 km/h (2 Bft)
10.10.2015 04:21 9,2 C 89 % 1023,4 hPa 0,0 l/m 2,1 km/h (1 Bft) O-SO 119 0 min 0 W/m 7,5 C 9,2 C 11,3 km/h (2 Bft)
10.10.2015 04:24 9,2 C 90 % 1023,4 hPa 0,0 l/m 1,4 km/h (1 Bft) O 90 0 min 0 W/m 7,6 C 9,2 C 6,4 km/h (2 Bft)
10.10.2015 04:27 9,1 C 89 % 1023,4 hPa 0,0 l/m 2,9 km/h (1 Bft) O-NO 63 0 min 0 W/m 7,4 C 9,1 C 6,4 km/h (2 Bft)
10.10.2015 04:30 9,1 C 89 % 1023,4 hPa 0,0 l/m 4,0 km/h (1 Bft) O-NO 73 0 min 0 W/m 7,4 C 9,1 C 6,4 km/h (2 Bft)
10.10.2015 04:33 9,1 C 89 % 1023,4 hPa 0,0 l/m 2,6 km/h (1 Bft) O-SO 123 0 min 0 W/m 7,4 C 9,1 C 4,8 km/h (1 Bft)
10.10.2015 04:36 9,1 C 88 % 1023,4 hPa 0,0 l/m 2,5 km/h (1 Bft) O 92 0 min 0 W/m 7,2 C 9,1 C 6,4 km/h (2 Bft)
10.10.2015 04:39 9,1 C 89 % 1023,4 hPa 0,0 l/m 2,1 km/h (1 Bft) SO 130 0 min 0 W/m 7,4 C 9,1 C 4,8 km/h (1 Bft)
10.10.2015 04:42 9,0 C 89 % 1023,4 hPa 0,0 l/m 2,2 km/h (1 Bft) O-NO 72 0 min 0 W/m 7,3 C 9,0 C 4,8 km/h (1 Bft)
10.10.2015 04:45 9,0 C 88 % 1023,4 hPa 0,0 l/m 3,1 km/h (1 Bft) O 84 0 min 0 W/m 7,1 C 9,0 C 8,0 km/h (2 Bft)
10.10.2015 04:48 9,0 C 88 % 1023,5 hPa 0,0 l/m 3,6 km/h (1 Bft) S 184 0 min 0 W/m 7,1 C 9,0 C 9,7 km/h (2 Bft)
10.10.2015 04:51 9,0 C 88 % 1023,4 hPa 0,0 l/m 3,9 km/h (1 Bft) N-NW 329 0 min 0 W/m 7,1 C 9,0 C 9,7 km/h (2 Bft)
10.10.2015 04:54 9,0 C 88 % 1023,5 hPa 0,0 l/m 4,0 km/h (1 Bft) O 101 0 min 0 W/m 7,1 C 9,0 C 11,3 km/h (2 Bft)
10.10.2015 04:57 9,0 C 88 % 1023,5 hPa 0,0 l/m 3,8 km/h (1 Bft) O-SO 114 0 min 0 W/m 7,1 C 9,0 C 9,7 km/h (2 Bft)
10.10.2015 05:00 8,9 C 87 % 1023,5 hPa 0,0 l/m 4,5 km/h (1 Bft) O 83 0 min 0 W/m 6,9 C 8,9 C 11,3 km/h (2 Bft)
10.10.2015 05:03 8,9 C 88 % 1023,5 hPa 0,0 l/m 4,4 km/h (1 Bft) O-SO 102 0 min 0 W/m 7,0 C 8,9 C 11,3 km/h (2 Bft)
10.10.2015 05:06 8,9 C 88 % 1023,4 hPa 0,0 l/m 3,8 km/h (1 Bft) NO 34 0 min 0 W/m 7,0 C 8,9 C 11,3 km/h (2 Bft)
10.10.2015 05:09 8,9 C 88 % 1023,4 hPa 0,0 l/m 2,5 km/h (1 Bft) NO 38 0 min 0 W/m 7,0 C 8,9 C 8,0 km/h (2 Bft)
10.10.2015 05:12 8,9 C 88 % 1023,4 hPa 0,0 l/m 3,6 km/h (1 Bft) O-SO 111 0 min 0 W/m 7,0 C 8,9 C 6,4 km/h (2 Bft)
10.10.2015 05:15 8,8 C 88 % 1023,4 hPa 0,0 l/m 3,6 km/h (1 Bft) O-SO 117 0 min 0 W/m 6,9 C 8,8 C 9,7 km/h (2 Bft)
10.10.2015 05:18 8,9 C 88 % 1023,4 hPa 0,0 l/m 3,0 km/h (1 Bft) O 96 0 min 0 W/m 7,0 C 8,9 C 8,0 km/h (2 Bft)
10.10.2015 05:21 8,8 C 88 % 1023,4 hPa 0,0 l/m 3,4 km/h (1 Bft) O 80 0 min 0 W/m 6,9 C 8,8 C 9,7 km/h (2 Bft)
10.10.2015 05:24 8,8 C 88 % 1023,4 hPa 0,0 l/m 4,7 km/h (1 Bft) O-SO 105 0 min 0 W/m 6,9 C 8,8 C 11,3 km/h (2 Bft)
10.10.2015 05:27 8,8 C 88 % 1023,4 hPa 0,0 l/m 2,9 km/h (1 Bft) O 93 0 min 0 W/m 6,9 C 8,8 C 9,7 km/h (2 Bft)
10.10.2015 05:30 8,8 C 88 % 1023,5 hPa 0,0 l/m 3,2 km/h (1 Bft) O-NO 74 0 min 0 W/m 6,9 C 8,8 C 9,7 km/h (2 Bft)
10.10.2015 05:33 8,7 C 87 % 1023,4 hPa 0,0 l/m 4,6 km/h (1 Bft) O-SO 121 0 min 0 W/m 6,7 C 8,7 C 16,1 km/h (3 Bft)
10.10.2015 05:36 8,7 C 88 % 1023,5 hPa 0,0 l/m 3,8 km/h (1 Bft) SO 146 0 min 0 W/m 6,8 C 8,7 C 11,3 km/h (2 Bft)
10.10.2015 05:39 8,7 C 88 % 1023,5 hPa 0,0 l/m 5,2 km/h (1 Bft) O-NO 63 0 min 0 W/m 6,8 C 8,7 C 11,3 km/h (2 Bft)
10.10.2015 05:42 8,7 C 88 % 1023,5 hPa 0,0 l/m 3,1 km/h (1 Bft) NO 49 0 min 0 W/m 6,8 C 8,7 C 6,4 km/h (2 Bft)
10.10.2015 05:45 8,7 C 88 % 1023,5 hPa 0,0 l/m 3,9 km/h (1 Bft) SO 133 0 min 0 W/m 6,8 C 8,7 C 9,7 km/h (2 Bft)
10.10.2015 05:48 8,6 C 88 % 1023,5 hPa 0,0 l/m 3,8 km/h (1 Bft) O 82 0 min 0 W/m 6,7 C 8,6 C 9,7 km/h (2 Bft)
10.10.2015 05:51 8,6 C 88 % 1023,5 hPa 0,0 l/m 3,4 km/h (1 Bft) O 92 0 min 0 W/m 6,7 C 8,6 C 8,0 km/h (2 Bft)
10.10.2015 05:54 8,6 C 88 % 1023,5 hPa 0,0 l/m 5,0 km/h (1 Bft) O-NO 77 0 min 0 W/m 6,7 C 8,6 C 11,3 km/h (2 Bft)
10.10.2015 05:57 8,6 C 88 % 1023,5 hPa 0,0 l/m 3,0 km/h (1 Bft) O 94 0 min 0 W/m 6,7 C 8,6 C 9,7 km/h (2 Bft)
10.10.2015 06:00 8,6 C 88 % 1023,5 hPa 0,0 l/m 3,2 km/h (1 Bft) O 92 0 min 0 W/m 6,7 C 8,6 C 11,3 km/h (2 Bft)
10.10.2015 06:03 8,6 C 87 % 1023,5 hPa 0,0 l/m 4,1 km/h (1 Bft) O-NO 65 0 min 0 W/m 6,6 C 8,6 C 11,3 km/h (2 Bft)
10.10.2015 06:06 8,6 C 87 % 1023,6 hPa 0,0 l/m 3,1 km/h (1 Bft) O-NO 76 0 min 0 W/m 6,6 C 8,6 C 8,0 km/h (2 Bft)
10.10.2015 06:09 8,6 C 88 % 1023,6 hPa 0,0 l/m 3,3 km/h (1 Bft) S-SO 163 0 min 0 W/m 6,7 C 8,6 C 6,4 km/h (2 Bft)
10.10.2015 06:12 8,6 C 87 % 1023,6 hPa 0,0 l/m 3,6 km/h (1 Bft) N-NW 343 0 min 0 W/m 6,6 C 8,6 C 9,7 km/h (2 Bft)
10.10.2015 06:15 8,6 C 87 % 1023,6 hPa 0,0 l/m 2,2 km/h (1 Bft) O 98 0 min 0 W/m 6,6 C 8,6 C 4,8 km/h (1 Bft)
10.10.2015 06:18 8,5 C 87 % 1023,5 hPa 0,0 l/m 2,3 km/h (1 Bft) O-NO 65 0 min 0 W/m 6,5 C 8,5 C 11,3 km/h (2 Bft)
10.10.2015 06:21 8,4 C 88 % 1023,6 hPa 0,0 l/m 1,8 km/h (1 Bft) SO 134 0 min 0 W/m 6,5 C 8,4 C 4,8 km/h (1 Bft)
10.10.2015 06:24 8,4 C 88 % 1023,6 hPa 0,0 l/m 3,6 km/h (1 Bft) NO 55 0 min 0 W/m 6,5 C 8,4 C 14,5 km/h (3 Bft)
10.10.2015 06:27 8,4 C 88 % 1023,6 hPa 0,0 l/m 3,1 km/h (1 Bft) NO 43 0 min 0 W/m 6,5 C 8,4 C 8,0 km/h (2 Bft)
10.10.2015 06:30 8,3 C 88 % 1023,6 hPa 0,0 l/m 3,5 km/h (1 Bft) O 87 0 min 0 W/m 6,4 C 8,3 C 8,0 km/h (2 Bft)
10.10.2015 06:33 8,3 C 87 % 1023,6 hPa 0,0 l/m 5,1 km/h (1 Bft) N-NO 29 0 min 0 W/m 6,3 C 8,3 C 12,9 km/h (3 Bft)
10.10.2015 06:36 8,3 C 87 % 1023,7 hPa 0,0 l/m 3,9 km/h (1 Bft) S-SO 148 0 min 0 W/m 6,3 C 8,3 C 12,9 km/h (3 Bft)
10.10.2015 06:39 8,3 C 87 % 1023,7 hPa 0,0 l/m 3,3 km/h (1 Bft) O-NO 63 0 min 0 W/m 6,3 C 8,3 C 8,0 km/h (2 Bft)
10.10.2015 06:42 8,3 C 86 % 1023,7 hPa 0,0 l/m 4,3 km/h (1 Bft) O 93 0 min 0 W/m 6,1 C 8,3 C 11,3 km/h (2 Bft)
10.10.2015 06:45 8,2 C 86 % 1023,7 hPa 0,0 l/m 3,3 km/h (1 Bft) SO 128 0 min 0 W/m 6,0 C 8,2 C 11,3 km/h (2 Bft)
10.10.2015 06:48 8,2 C 86 % 1023,6 hPa 0,0 l/m 3,5 km/h (1 Bft) O-SO 113 0 min 0 W/m 6,0 C 8,2 C 6,4 km/h (2 Bft)
10.10.2015 06:51 8,2 C 86 % 1023,6 hPa 0,0 l/m 2,1 km/h (1 Bft) O-SO 120 0 min 0 W/m 6,0 C 8,2 C 4,8 km/h (1 Bft)
10.10.2015 06:54 8,1 C 87 % 1023,7 hPa 0,0 l/m 1,2 km/h (1 Bft) O-SO 120 0 min 0 W/m 6,1 C 8,1 C 3,2 km/h (1 Bft)
10.10.2015 06:57 8,0 C 87 % 1023,7 hPa 0,0 l/m 1,3 km/h (1 Bft) O-SO 120 0 min 0 W/m 6,0 C 8,0 C 4,8 km/h (1 Bft)
10.10.2015 07:00 7,9 C 88 % 1023,7 hPa 0,0 l/m 2,1 km/h (1 Bft) O-SO 117 0 min 0 W/m 6,0 C 7,9 C 4,8 km/h (1 Bft)
10.10.2015 07:03 7,9 C 87 % 1023,7 hPa 0,0 l/m 2,1 km/h (1 Bft) SO 127 0 min 0 W/m 5,9 C 7,9 C 4,8 km/h (1 Bft)
10.10.2015 07:06 7,8 C 87 % 1023,7 hPa 0,0 l/m 1,3 km/h (1 Bft) SO 132 0 min 0 W/m 5,8 C 7,8 C 3,2 km/h (1 Bft)
10.10.2015 07:09 7,8 C 88 % 1023,7 hPa 0,0 l/m 3,0 km/h (1 Bft) SO 125 0 min 0 W/m 5,9 C 7,8 C 6,4 km/h (2 Bft)
10.10.2015 07:12 7,7 C 88 % 1023,8 hPa 0,0 l/m 2,7 km/h (1 Bft) SO 137 0 min 0 W/m 5,8 C 7,7 C 9,7 km/h (2 Bft)
10.10.2015 07:15 7,7 C 88 % 1023,8 hPa 0,0 l/m 2,2 km/h (1 Bft) O-SO 110 0 min 0 W/m 5,8 C 7,7 C 4,8 km/h (1 Bft)
10.10.2015 07:18 7,7 C 88 % 1023,8 hPa 0,0 l/m 3,1 km/h (1 Bft) S 186 0 min 0 W/m 5,8 C 7,7 C 4,8 km/h (1 Bft)
10.10.2015 07:21 7,7 C 87 % 1023,8 hPa 0,0 l/m 1,3 km/h (1 Bft) S 186 0 min 0 W/m 5,7 C 7,7 C 3,2 km/h (1 Bft)
10.10.2015 07:24 7,7 C 88 % 1023,9 hPa 0,0 l/m 0,8 km/h (0 Bft) SO 138 0 min 0 W/m 5,8 C 7,7 C 1,6 km/h (1 Bft)
10.10.2015 07:27 7,6 C 88 % 1023,8 hPa 0,0 l/m 1,7 km/h (1 Bft) SO 136 0 min 0 W/m 5,7 C 7,6 C 4,8 km/h (1 Bft)
10.10.2015 07:30 7,5 C 88 % 1023,8 hPa 0,0 l/m 0,4 km/h (0 Bft) SO 136 0 min 0 W/m 5,6 C 7,5 C 1,6 km/h (1 Bft)
10.10.2015 07:33 7,5 C 88 % 1023,8 hPa 0,0 l/m 1,6 km/h (1 Bft) O-SO 123 0 min 0 W/m 5,6 C 7,5 C 4,8 km/h (1 Bft)
10.10.2015 07:36 7,4 C 88 % 1023,8 hPa 0,0 l/m 2,0 km/h (1 Bft) SO 135 0 min 0 W/m 5,5 C 7,4 C 4,8 km/h (1 Bft)
10.10.2015 07:39 7,4 C 89 % 1023,7 hPa 0,0 l/m 2,2 km/h (1 Bft) O-SO 105 0 min 0 W/m 5,7 C 7,4 C 6,4 km/h (2 Bft)
10.10.2015 07:42 7,4 C 88 % 1023,8 hPa 0,0 l/m 2,1 km/h (1 Bft) SO 130 0 min 0 W/m 5,5 C 7,4 C 6,4 km/h (2 Bft)
10.10.2015 07:45 7,4 C 89 % 1023,8 hPa 0,0 l/m 2,6 km/h (1 Bft) S-SO 147 0 min 0 W/m 5,7 C 7,4 C 6,4 km/h (2 Bft)
10.10.2015 07:48 7,4 C 88 % 1023,8 hPa 0,0 l/m 2,6 km/h (1 Bft) O-NO 57 0 min 0 W/m 5,5 C 7,4 C 4,8 km/h (1 Bft)
10.10.2015 07:51 7,3 C 89 % 1023,8 hPa 0,0 l/m 0,9 km/h (0 Bft) O-SO 104 0 min 0 W/m 5,6 C 7,3 C 4,8 km/h (1 Bft)
10.10.2015 07:54 7,3 C 89 % 1023,8 hPa 0,0 l/m 1,1 km/h (1 Bft) O 96 0 min 5 W/m 5,6 C 7,3 C 3,2 km/h (1 Bft)
10.10.2015 07:57 7,2 C 89 % 1023,8 hPa 0,0 l/m 1,4 km/h (1 Bft) O 96 0 min 5 W/m 5,5 C 7,2 C 3,2 km/h (1 Bft)
10.10.2015 08:00 7,1 C 89 % 1023,8 hPa 0,0 l/m 2,4 km/h (1 Bft) SO 131 0 min 5 W/m 5,4 C 7,1 C 6,4 km/h (2 Bft)
10.10.2015 08:03 7,0 C 90 % 1023,8 hPa 0,0 l/m 1,2 km/h (1 Bft) SO 131 0 min 5 W/m 5,5 C 7,0 C 3,2 km/h (1 Bft)
10.10.2015 08:06 6,9 C 90 % 1023,8 hPa 0,0 l/m 1,2 km/h (1 Bft) O-SO 111 0 min 7 W/m 5,4 C 6,9 C 4,8 km/h (1 Bft)
10.10.2015 08:09 6,9 C 90 % 1023,8 hPa 0,0 l/m 1,9 km/h (1 Bft) O-NO 65 0 min 7 W/m 5,4 C 6,9 C 4,8 km/h (1 Bft)
10.10.2015 08:12 6,8 C 90 % 1023,8 hPa 0,0 l/m 3,1 km/h (1 Bft) O-NO 67 0 min 9 W/m 5,3 C 6,8 C 6,4 km/h (2 Bft)
10.10.2015 08:15 6,9 C 90 % 1023,8 hPa 0,0 l/m 2,6 km/h (1 Bft) O-SO 117 0 min 9 W/m 5,4 C 6,9 C 6,4 km/h (2 Bft)
10.10.2015 08:18 6,9 C 90 % 1023,8 hPa 0,0 l/m 1,9 km/h (1 Bft) SO 133 0 min 9 W/m 5,4 C 6,9 C 4,8 km/h (1 Bft)
10.10.2015 08:21 6,9 C 90 % 1023,8 hPa 0,0 l/m 2,6 km/h (1 Bft) O-SO 113 0 min 11 W/m 5,4 C 6,9 C 4,8 km/h (1 Bft)
10.10.2015 08:24 6,8 C 90 % 1023,7 hPa 0,0 l/m 2,0 km/h (1 Bft) O 92 0 min 12 W/m 5,3 C 6,8 C 4,8 km/h (1 Bft)
10.10.2015 08:27 6,8 C 90 % 1023,8 hPa 0,0 l/m 2,0 km/h (1 Bft) O 84 0 min 14 W/m 5,3 C 6,8 C 6,4 km/h (2 Bft)
10.10.2015 08:30 6,9 C 89 % 1023,8 hPa 0,0 l/m 3,1 km/h (1 Bft) O-SO 119 0 min 14 W/m 5,2 C 6,9 C 6,4 km/h (2 Bft)
10.10.2015 08:33 6,9 C 89 % 1023,8 hPa 0,0 l/m 1,9 km/h (1 Bft) O-SO 121 0 min 16 W/m 5,2 C 6,9 C 6,4 km/h (2 Bft)
10.10.2015 08:36 6,9 C 89 % 1023,8 hPa 0,0 l/m 1,5 km/h (1 Bft) O 94 0 min 18 W/m 5,2 C 6,9 C 4,8 km/h (1 Bft)
10.10.2015 08:39 6,9 C 89 % 1023,8 hPa 0,0 l/m 1,6 km/h (1 Bft) O 94 0 min 18 W/m 5,2 C 6,9 C 3,2 km/h (1 Bft)
10.10.2015 08:42 7,0 C 89 % 1023,9 hPa 0,0 l/m 1,8 km/h (1 Bft) O 85 0 min 19 W/m 5,3 C 7,0 C 4,8 km/h (1 Bft)
10.10.2015 08:45 7,0 C 89 % 1023,9 hPa 0,0 l/m 2,9 km/h (1 Bft) NO 40 0 min 19 W/m 5,3 C 7,0 C 9,7 km/h (2 Bft)
10.10.2015 08:48 7,1 C 89 % 1024,0 hPa 0,0 l/m 1,9 km/h (1 Bft) O 86 0 min 19 W/m 5,4 C 7,1 C 4,8 km/h (1 Bft)
10.10.2015 08:51 7,2 C 88 % 1024,1 hPa 0,0 l/m 3,1 km/h (1 Bft) SO 125 0 min 21 W/m 5,3 C 7,2 C 6,4 km/h (2 Bft)
10.10.2015 08:54 7,3 C 89 % 1024,0 hPa 0,0 l/m 2,8 km/h (1 Bft) O-NO 74 0 min 21 W/m 5,6 C 7,3 C 11,3 km/h (2 Bft)
10.10.2015 08:57 7,3 C 88 % 1024,1 hPa 0,0 l/m 2,3 km/h (1 Bft) S 180 0 min 21 W/m 5,4 C 7,3 C 6,4 km/h (2 Bft)
10.10.2015 09:00 7,4 C 88 % 1024,1 hPa 0,0 l/m 2,9 km/h (1 Bft) S 172 0 min 23 W/m 5,5 C 7,4 C 8,0 km/h (2 Bft)
10.10.2015 09:03 7,4 C 88 % 1024,1 hPa 0,0 l/m 3,0 km/h (1 Bft) O 96 0 min 23 W/m 5,5 C 7,4 C 9,7 km/h (2 Bft)
10.10.2015 09:06 7,5 C 87 % 1024,2 hPa 0,0 l/m 5,0 km/h (1 Bft) S 173 0 min 25 W/m 5,5 C 7,5 C 14,5 km/h (3 Bft)
10.10.2015 09:09 7,7 C 86 % 1024,2 hPa 0,0 l/m 2,8 km/h (1 Bft) SO 128 0 min 25 W/m 5,5 C 7,7 C 6,4 km/h (2 Bft)
10.10.2015 09:12 7,7 C 86 % 1024,2 hPa 0,0 l/m 3,0 km/h (1 Bft) NO 49 0 min 25 W/m 5,5 C 7,7 C 11,3 km/h (2 Bft)
10.10.2015 09:15 7,8 C 86 % 1024,2 hPa 0,0 l/m 2,6 km/h (1 Bft) O-SO 123 0 min 26 W/m 5,6 C 7,8 C 8,0 km/h (2 Bft)
10.10.2015 09:18 7,8 C 86 % 1024,2 hPa 0,0 l/m 2,5 km/h (1 Bft) SO 134 0 min 26 W/m 5,6 C 7,8 C 9,7 km/h (2 Bft)
10.10.2015 09:21 7,8 C 86 % 1024,2 hPa 0,0 l/m 2,6 km/h (1 Bft) SO 136 0 min 26 W/m 5,6 C 7,8 C 9,7 km/h (2 Bft)
10.10.2015 09:24 7,8 C 85 % 1024,2 hPa 0,0 l/m 4,8 km/h (1 Bft) O 100 0 min 28 W/m 5,4 C 7,8 C 11,3 km/h (2 Bft)
10.10.2015 09:27 7,9 C 84 % 1024,2 hPa 0,0 l/m 4,7 km/h (1 Bft) O 98 0 min 28 W/m 5,4 C 7,9 C 11,3 km/h (2 Bft)
10.10.2015 09:30 7,9 C 84 % 1024,2 hPa 0,0 l/m 2,3 km/h (1 Bft) N 349 0 min 28 W/m 5,4 C 7,9 C 4,8 km/h (1 Bft)
10.10.2015 09:33 7,9 C 84 % 1024,3 hPa 0,0 l/m 4,8 km/h (1 Bft) O 98 0 min 32 W/m 5,4 C 7,9 C 12,9 km/h (3 Bft)
10.10.2015 09:36 7,9 C 83 % 1024,3 hPa 0,0 l/m 4,8 km/h (1 Bft) S 188 0 min 32 W/m 5,2 C 7,9 C 14,5 km/h (3 Bft)
10.10.2015 09:39 7,9 C 82 % 1024,3 hPa 0,0 l/m 5,8 km/h (2 Bft) O 99 0 min 32 W/m 5,0 C 7,9 C 12,9 km/h (3 Bft)
10.10.2015 09:42 7,9 C 82 % 1024,3 hPa 0,0 l/m 5,3 km/h (1 Bft) NO 53 0 min 33 W/m 5,0 C 7,9 C 16,1 km/h (3 Bft)
10.10.2015 09:45 7,9 C 82 % 1024,4 hPa 0,0 l/m 5,9 km/h (2 Bft) NO 46 0 min 39 W/m 5,0 C 7,9 C 16,1 km/h (3 Bft)
10.10.2015 09:48 8,0 C 82 % 1024,4 hPa 0,0 l/m 4,2 km/h (1 Bft) SO 139 0 min 69 W/m 5,1 C 8,0 C 11,3 km/h (2 Bft)
10.10.2015 09:51 8,1 C 82 % 1024,3 hPa 0,0 l/m 5,1 km/h (1 Bft) O-NO 65 0 min 86 W/m 5,2 C 8,1 C 17,7 km/h (3 Bft)
10.10.2015 09:54 8,2 C 82 % 1024,3 hPa 0,0 l/m 2,6 km/h (1 Bft) SO 140 0 min 120 W/m 5,3 C 8,2 C 9,7 km/h (2 Bft)
10.10.2015 09:57 8,3 C 82 % 1024,3 hPa 0,0 l/m 4,9 km/h (1 Bft) SO 130 0 min 134 W/m 5,4 C 8,3 C 12,9 km/h (3 Bft)
10.10.2015 10:00 8,3 C 80 % 1024,4 hPa 0,0 l/m 5,9 km/h (2 Bft) NO 52 0 min 146 W/m 5,1 C 8,3 C 12,9 km/h (3 Bft)
10.10.2015 10:03 8,4 C 80 % 1024,4 hPa 0,0 l/m 4,0 km/h (1 Bft) SO 140 3 min 155 W/m 5,2 C 8,4 C 6,4 km/h (2 Bft)
10.10.2015 10:06 8,6 C 79 % 1024,4 hPa 0,0 l/m 5,8 km/h (2 Bft) O-NO 73 3 min 162 W/m 5,2 C 8,6 C 11,3 km/h (2 Bft)
10.10.2015 10:09 8,6 C 79 % 1024,4 hPa 0,0 l/m 5,8 km/h (2 Bft) S 175 3 min 174 W/m 5,2 C 8,6 C 12,9 km/h (3 Bft)
10.10.2015 10:12 8,6 C 80 % 1024,3 hPa 0,0 l/m 5,7 km/h (2 Bft) O 89 3 min 188 W/m 5,3 C 8,6 C 12,9 km/h (3 Bft)
10.10.2015 10:15 8,7 C 81 % 1024,4 hPa 0,0 l/m 4,6 km/h (1 Bft) O 96 3 min 206 W/m 5,6 C 8,7 C 14,5 km/h (3 Bft)
10.10.2015 10:18 8,7 C 80 % 1024,3 hPa 0,0 l/m 3,6 km/h (1 Bft) S 169 3 min 214 W/m 5,4 C 8,7 C 6,4 km/h (2 Bft)
10.10.2015 10:21 8,8 C 80 % 1024,3 hPa 0,0 l/m 4,5 km/h (1 Bft) O 98 3 min 218 W/m 5,5 C 8,8 C 14,5 km/h (3 Bft)
10.10.2015 10:24 8,8 C 80 % 1024,3 hPa 0,0 l/m 5,5 km/h (2 Bft) O-NO 69 3 min 211 W/m 5,5 C 8,8 C 12,9 km/h (3 Bft)
10.10.2015 10:27 8,9 C 80 % 1024,3 hPa 0,0 l/m 6,1 km/h (2 Bft) NO 40 3 min 200 W/m 5,6 C 8,9 C 11,3 km/h (2 Bft)
10.10.2015 10:30 9,0 C 80 % 1024,3 hPa 0,0 l/m 3,1 km/h (1 Bft) NO 39 3 min 200 W/m 5,7 C 9,0 C 6,4 km/h (2 Bft)
10.10.2015 10:33 9,1 C 80 % 1024,3 hPa 0,0 l/m 4,7 km/h (1 Bft) O-SO 117 3 min 209 W/m 5,8 C 9,1 C 14,5 km/h (3 Bft)
10.10.2015 10:36 9,1 C 80 % 1024,3 hPa 0,0 l/m 2,9 km/h (1 Bft) O-NO 77 3 min 227 W/m 5,8 C 9,1 C 6,4 km/h (2 Bft)
10.10.2015 10:39 9,3 C 78 % 1024,2 hPa 0,0 l/m 3,7 km/h (1 Bft) O-SO 122 3 min 251 W/m 5,7 C 9,3 C 8,0 km/h (2 Bft)
10.10.2015 10:42 9,4 C 77 % 1024,2 hPa 0,0 l/m 4,1 km/h (1 Bft) S-SO 148 3 min 265 W/m 5,6 C 9,4 C 12,9 km/h (3 Bft)
10.10.2015 10:45 9,6 C 78 % 1024,2 hPa 0,0 l/m 5,6 km/h (2 Bft) O 83 3 min 274 W/m 6,0 C 9,6 C 16,1 km/h (3 Bft)
10.10.2015 10:48 9,6 C 76 % 1024,2 hPa 0,0 l/m 3,5 km/h (1 Bft) O 92 3 min 279 W/m 5,6 C 9,6 C 11,3 km/h (2 Bft)
10.10.2015 10:51 9,6 C 75 % 1024,2 hPa 0,0 l/m 4,8 km/h (1 Bft) O-SO 103 3 min 285 W/m 5,4 C 9,6 C 8,0 km/h (2 Bft)
10.10.2015 10:54 9,7 C 76 % 1024,1 hPa 0,0 l/m 5,2 km/h (1 Bft) SO 136 3 min 292 W/m 5,7 C 9,7 C 14,5 km/h (3 Bft)
10.10.2015 10:57 9,8 C 77 % 1024,1 hPa 0,0 l/m 3,1 km/h (1 Bft) SO 145 3 min 297 W/m 6,0 C 9,8 C 6,4 km/h (2 Bft)
10.10.2015 11:00 10,0 C 78 % 1024,1 hPa 0,0 l/m 4,5 km/h (1 Bft) O-SO 115 3 min 304 W/m 6,3 C 10,0 C 9,7 km/h (2 Bft)
10.10.2015 11:03 10,0 C 76 % 1024,1 hPa 0,0 l/m 4,1 km/h (1 Bft) NO 51 3 min 318 W/m 6,0 C 10,0 C 12,9 km/h (3 Bft)
10.10.2015 11:06 10,1 C 73 % 1024,2 hPa 0,0 l/m 5,3 km/h (1 Bft) N-NO 15 3 min 283 W/m 5,5 C 10,1 C 14,5 km/h (3 Bft)
10.10.2015 11:09 9,9 C 72 % 1024,2 hPa 0,0 l/m 5,8 km/h (2 Bft) O-NO 59 0 min 149 W/m 5,1 C 9,9 C 14,5 km/h (3 Bft)
10.10.2015 11:12 9,9 C 75 % 1024,2 hPa 0,0 l/m 3,5 km/h (1 Bft) O-NO 62 3 min 262 W/m 5,7 C 9,9 C 9,7 km/h (2 Bft)
10.10.2015 11:15 9,9 C 74 % 1024,2 hPa 0,0 l/m 5,0 km/h (1 Bft) O-SO 119 0 min 183 W/m 5,5 C 9,9 C 12,9 km/h (3 Bft)
10.10.2015 11:18 10,1 C 74 % 1024,2 hPa 0,0 l/m 6,4 km/h (2 Bft) NO 46 3 min 343 W/m 5,7 C 10,1 C 20,9 km/h (4 Bft)
10.10.2015 11:21 10,1 C 73 % 1024,2 hPa 0,0 l/m 4,0 km/h (1 Bft) N-NO 25 0 min 193 W/m 5,5 C 10,1 C 12,9 km/h (3 Bft)
10.10.2015 11:24 10,1 C 71 % 1024,2 hPa 0,0 l/m 5,9 km/h (2 Bft) N-NO 21 3 min 302 W/m 5,1 C 10,1 C 16,1 km/h (3 Bft)
10.10.2015 11:27 10,1 C 72 % 1024,2 hPa 0,0 l/m 6,3 km/h (2 Bft) O-NO 76 3 min 403 W/m 5,3 C 10,1 C 12,9 km/h (3 Bft)
10.10.2015 11:30 10,2 C 72 % 1024,2 hPa 0,0 l/m 6,1 km/h (2 Bft) SW 231 3 min 322 W/m 5,4 C 10,2 C 16,1 km/h (3 Bft)
10.10.2015 11:33 10,2 C 74 % 1024,2 hPa 0,0 l/m 5,7 km/h (2 Bft) O 87 3 min 320 W/m 5,8 C 10,2 C 16,1 km/h (3 Bft)
10.10.2015 11:36 10,1 C 73 % 1024,2 hPa 0,0 l/m 5,3 km/h (1 Bft) SO 138 3 min 264 W/m 5,5 C 10,1 C 12,9 km/h (3 Bft)
10.10.2015 11:39 10,2 C 72 % 1024,2 hPa 0,0 l/m 6,4 km/h (2 Bft) O-SO 121 3 min 271 W/m 5,4 C 10,2 C 16,1 km/h (3 Bft)
10.10.2015 11:42 10,2 C 72 % 1024,2 hPa 0,0 l/m 6,8 km/h (2 Bft) S 169 3 min 246 W/m 5,4 C 9,9 C 17,7 km/h (3 Bft)
10.10.2015 11:45 10,2 C 72 % 1024,2 hPa 0,0 l/m 7,4 km/h (2 Bft) O-SO 106 3 min 253 W/m 5,4 C 9,5 C 22,5 km/h (4 Bft)
10.10.2015 11:48 10,2 C 71 % 1024,2 hPa 0,0 l/m 4,7 km/h (1 Bft) SO 145 3 min 243 W/m 5,2 C 10,2 C 9,7 km/h (2 Bft)
10.10.2015 11:51 10,4 C 71 % 1024,2 hPa 0,0 l/m 5,8 km/h (2 Bft) O-NO 70 3 min 258 W/m 5,4 C 10,4 C 12,9 km/h (3 Bft)
10.10.2015 11:54 10,4 C 70 % 1024,1 hPa 0,0 l/m 5,8 km/h (2 Bft) O-SO 106 3 min 260 W/m 5,2 C 10,4 C 14,5 km/h (3 Bft)
10.10.2015 11:57 10,5 C 70 % 1024,2 hPa 0,0 l/m 7,8 km/h (2 Bft) O-SO 122 0 min 236 W/m 5,3 C 9,5 C 16,1 km/h (3 Bft)
10.10.2015 12:00 10,4 C 69 % 1024,2 hPa 0,0 l/m 5,5 km/h (2 Bft) O-SO 118 0 min 221 W/m 5,0 C 10,4 C 12,9 km/h (3 Bft)
10.10.2015 12:03 10,4 C 73 % 1024,2 hPa 0,0 l/m 5,1 km/h (1 Bft) O-SO 107 0 min 220 W/m 5,8 C 10,4 C 16,1 km/h (3 Bft)
10.10.2015 12:06 10,4 C 72 % 1024,1 hPa 0,0 l/m 5,9 km/h (2 Bft) O-SO 115 0 min 234 W/m 5,6 C 10,4 C 12,9 km/h (3 Bft)
10.10.2015 12:09 10,6 C 70 % 1024,1 hPa 0,0 l/m 5,3 km/h (1 Bft) NO 44 0 min 241 W/m 5,4 C 10,6 C 11,3 km/h (2 Bft)
10.10.2015 12:12 10,5 C 68 % 1024,0 hPa 0,0 l/m 6,8 km/h (2 Bft) O 90 3 min 253 W/m 4,8 C 10,2 C 14,5 km/h (3 Bft)
10.10.2015 12:15 10,7 C 71 % 1024,0 hPa 0,0 l/m 3,1 km/h (1 Bft) NO 52 3 min 253 W/m 5,7 C 10,7 C 12,9 km/h (3 Bft)
10.10.2015 12:18 10,8 C 70 % 1024,0 hPa 0,0 l/m 8,1 km/h (2 Bft) S-SO 153 3 min 267 W/m 5,6 C 9,6 C 17,7 km/h (3 Bft)
10.10.2015 12:21 10,6 C 67 % 1024,0 hPa 0,0 l/m 8,9 km/h (2 Bft) SO 146 3 min 257 W/m 4,7 C 8,9 C 17,7 km/h (3 Bft)
10.10.2015 12:24 10,6 C 70 % 1024,0 hPa 0,0 l/m 5,3 km/h (1 Bft) S-SO 147 0 min 243 W/m 5,4 C 10,6 C 12,9 km/h (3 Bft)
10.10.2015 12:27 10,8 C 72 % 1024,0 hPa 0,0 l/m 3,0 km/h (1 Bft) O-NO 72 0 min 241 W/m 6,0 C 10,8 C 6,4 km/h (2 Bft)
10.10.2015 12:30 10,8 C 68 % 1023,9 hPa 0,0 l/m 6,0 km/h (2 Bft) S-SW 200 3 min 250 W/m 5,1 C 10,8 C 16,1 km/h (3 Bft)
10.10.2015 12:33 10,7 C 68 % 1023,9 hPa 0,0 l/m 6,3 km/h (2 Bft) NO 55 3 min 257 W/m 5,0 C 10,7 C 14,5 km/h (3 Bft)
10.10.2015 12:36 10,8 C 70 % 1023,9 hPa 0,0 l/m 7,1 km/h (2 Bft) N-NO 16 3 min 250 W/m 5,6 C 10,3 C 20,9 km/h (4 Bft)
10.10.2015 12:39 10,8 C 68 % 1023,9 hPa 0,0 l/m 7,0 km/h (2 Bft) SO 125 3 min 250 W/m 5,1 C 10,4 C 12,9 km/h (3 Bft)
10.10.2015 12:42 10,9 C 72 % 1023,9 hPa 0,0 l/m 4,8 km/h (1 Bft) O-NO 67 3 min 253 W/m 6,1 C 10,9 C 17,7 km/h (3 Bft)
10.10.2015 12:45 10,9 C 70 % 1023,8 hPa 0,0 l/m 5,4 km/h (2 Bft) SO 138 3 min 274 W/m 5,6 C 10,9 C 12,9 km/h (3 Bft)
10.10.2015 12:48 11,0 C 70 % 1023,8 hPa 0,0 l/m 6,1 km/h (2 Bft) NO 46 3 min 338 W/m 5,7 C 11,0 C 14,5 km/h (3 Bft)
10.10.2015 12:51 11,2 C 68 % 1023,7 hPa 0,0 l/m 6,3 km/h (2 Bft) O-NO 65 3 min 279 W/m 5,5 C 11,2 C 19,3 km/h (3 Bft)
10.10.2015 12:54 11,2 C 68 % 1023,7 hPa 0,0 l/m 4,9 km/h (1 Bft) O-NO 71 3 min 302 W/m 5,5 C 11,2 C 11,3 km/h (2 Bft)
10.10.2015 12:57 11,3 C 69 % 1023,6 hPa 0,0 l/m 6,6 km/h (2 Bft) SW 236 3 min 279 W/m 5,8 C 11,2 C 14,5 km/h (3 Bft)
10.10.2015 13:00 11,4 C 69 % 1023,6 hPa 0,0 l/m 4,9 km/h (1 Bft) NO 38 3 min 285 W/m 5,9 C 11,4 C 12,9 km/h (3 Bft)
10.10.2015 13:03 11,4 C 64 % 1023,6 hPa 0,0 l/m 7,1 km/h (2 Bft) NO 43 3 min 327 W/m 4,8 C 10,9 C 14,5 km/h (3 Bft)
10.10.2015 13:06 11,4 C 66 % 1023,5 hPa 0,0 l/m 6,8 km/h (2 Bft) S-SO 152 3 min 345 W/m 5,3 C 11,1 C 19,3 km/h (3 Bft)
10.10.2015 13:09 11,6 C 63 % 1023,6 hPa 0,0 l/m 7,8 km/h (2 Bft) NO 42 3 min 350 W/m 4,8 C 10,7 C 17,7 km/h (3 Bft)
10.10.2015 13:12 11,6 C 61 % 1023,5 hPa 0,0 l/m 7,3 km/h (2 Bft) O 96 3 min 457 W/m 4,3 C 11,0 C 16,1 km/h (3 Bft)
10.10.2015 13:15 11,9 C 62 % 1023,6 hPa 0,0 l/m 8,7 km/h (2 Bft) O 83 3 min 515 W/m 4,9 C 10,4 C 25,7 km/h (4 Bft)
10.10.2015 13:18 12,1 C 61 % 1023,5 hPa 0,0 l/m 8,1 km/h (2 Bft) O 88 3 min 485 W/m 4,8 C 11,0 C 16,1 km/h (3 Bft)
10.10.2015 13:21 12,1 C 59 % 1023,6 hPa 0,0 l/m 8,1 km/h (2 Bft) NO 40 3 min 459 W/m 4,3 C 11,0 C 19,3 km/h (3 Bft)
10.10.2015 13:24 12,1 C 58 % 1023,6 hPa 0,0 l/m 7,1 km/h (2 Bft) O-SO 123 3 min 450 W/m 4,1 C 11,6 C 16,1 km/h (3 Bft)
10.10.2015 13:27 12,1 C 61 % 1023,5 hPa 0,0 l/m 9,7 km/h (2 Bft) O-NO 68 3 min 443 W/m 4,8 C 10,1 C 19,3 km/h (3 Bft)
10.10.2015 13:30 12,1 C 62 % 1023,5 hPa 0,0 l/m 7,4 km/h (2 Bft) NO 40 3 min 438 W/m 5,0 C 11,4 C 17,7 km/h (3 Bft)
10.10.2015 13:33 12,2 C 62 % 1023,5 hPa 0,0 l/m 6,9 km/h (2 Bft) O 90 3 min 436 W/m 5,1 C 11,9 C 14,5 km/h (3 Bft)
10.10.2015 13:36 12,3 C 59 % 1023,5 hPa 0,0 l/m 6,7 km/h (2 Bft) NO 49 3 min 434 W/m 4,5 C 12,1 C 16,1 km/h (3 Bft)
10.10.2015 13:39 12,2 C 59 % 1023,4 hPa 0,0 l/m 7,3 km/h (2 Bft) SO 134 3 min 431 W/m 4,4 C 11,6 C 16,1 km/h (3 Bft)
10.10.2015 13:42 12,2 C 60 % 1023,4 hPa 0,0 l/m 8,1 km/h (2 Bft) O 83 3 min 432 W/m 4,7 C 11,1 C 24,1 km/h (4 Bft)
10.10.2015 13:45 12,2 C 59 % 1023,5 hPa 0,0 l/m 6,4 km/h (2 Bft) S-SW 206 3 min 432 W/m 4,4 C 12,2 C 17,7 km/h (3 Bft)
10.10.2015 13:48 12,3 C 56 % 1023,4 hPa 0,0 l/m 8,4 km/h (2 Bft) O-SO 112 3 min 434 W/m 3,8 C 11,0 C 19,3 km/h (3 Bft)
10.10.2015 13:51 12,2 C 58 % 1023,4 hPa 0,0 l/m 7,2 km/h (2 Bft) N-NO 30 3 min 431 W/m 4,2 C 11,7 C 14,5 km/h (3 Bft)
10.10.2015 13:54 12,2 C 56 % 1023,4 hPa 0,0 l/m 8,5 km/h (2 Bft) O-SO 106 3 min 431 W/m 3,7 C 10,9 C 17,7 km/h (3 Bft)
10.10.2015 13:57 12,3 C 59 % 1023,4 hPa 0,0 l/m 9,3 km/h (2 Bft) O 98 3 min 432 W/m 4,5 C 10,5 C 22,5 km/h (4 Bft)
10.10.2015 14:00 12,2 C 56 % 1023,4 hPa 0,0 l/m 5,4 km/h (2 Bft) O 80 3 min 431 W/m 3,7 C 12,2 C 17,7 km/h (3 Bft)
10.10.2015 14:03 12,3 C 57 % 1023,4 hPa 0,0 l/m 5,9 km/h (2 Bft) O-SO 115 3 min 429 W/m 4,0 C 12,3 C 16,1 km/h (3 Bft)
10.10.2015 14:06 12,3 C 58 % 1023,4 hPa 0,0 l/m 6,0 km/h (2 Bft) S-SO 159 3 min 429 W/m 4,3 C 12,3 C 16,1 km/h (3 Bft)
10.10.2015 14:09 12,4 C 57 % 1023,4 hPa 0,0 l/m 8,3 km/h (2 Bft) S-SO 150 3 min 427 W/m 4,1 C 11,2 C 24,1 km/h (4 Bft)
10.10.2015 14:12 12,4 C 56 % 1023,3 hPa 0,0 l/m 6,1 km/h (2 Bft) N 355 3 min 424 W/m 3,9 C 12,4 C 14,5 km/h (3 Bft)
10.10.2015 14:15 12,4 C 57 % 1023,3 hPa 0,0 l/m 5,7 km/h (2 Bft) O-NO 58 3 min 425 W/m 4,1 C 12,4 C 17,7 km/h (3 Bft)
10.10.2015 14:18 12,5 C 60 % 1023,3 hPa 0,0 l/m 5,4 km/h (2 Bft) W 264 3 min 422 W/m 5,0 C 12,5 C 14,5 km/h (3 Bft)
10.10.2015 14:21 12,6 C 58 % 1023,2 hPa 0,0 l/m 5,5 km/h (2 Bft) O-SO 106 3 min 418 W/m 4,6 C 12,6 C 19,3 km/h (3 Bft)
10.10.2015 14:24 12,6 C 59 % 1023,2 hPa 0,0 l/m 3,9 km/h (1 Bft) O-SO 106 3 min 417 W/m 4,8 C 12,6 C 11,3 km/h (2 Bft)
10.10.2015 14:27 12,4 C 62 % 1023,2 hPa 0,0 l/m 6,6 km/h (2 Bft) NO 47 3 min 411 W/m 5,3 C 12,3 C 14,5 km/h (3 Bft)
10.10.2015 14:30 12,4 C 60 % 1023,2 hPa 0,0 l/m 5,5 km/h (2 Bft) N-NO 24 3 min 411 W/m 4,9 C 12,4 C 19,3 km/h (3 Bft)
10.10.2015 14:33 12,7 C 61 % 1023,2 hPa 0,0 l/m 4,9 km/h (1 Bft) N-NO 22 3 min 408 W/m 5,4 C 12,7 C 20,9 km/h (4 Bft)
10.10.2015 14:36 12,7 C 58 % 1023,1 hPa 0,0 l/m 6,6 km/h (2 Bft) NW 323 3 min 406 W/m 4,7 C 12,6 C 17,7 km/h (3 Bft)
10.10.2015 14:39 12,9 C 61 % 1023,2 hPa 0,0 l/m 4,6 km/h (1 Bft) O-SO 105 3 min 404 W/m 5,6 C 12,9 C 9,7 km/h (2 Bft)
10.10.2015 14:42 13,0 C 57 % 1023,2 hPa 0,0 l/m 4,2 km/h (1 Bft) S-SO 157 3 min 403 W/m 4,7 C 13,0 C 11,3 km/h (2 Bft)
10.10.2015 14:45 12,9 C 56 % 1023,1 hPa 0,0 l/m 6,2 km/h (2 Bft) O-NO 78 3 min 399 W/m 4,3 C 12,9 C 14,5 km/h (3 Bft)
10.10.2015 14:48 12,7 C 57 % 1023,0 hPa 0,0 l/m 6,1 km/h (2 Bft) O-NO 62 3 min 397 W/m 4,4 C 12,7 C 12,9 km/h (3 Bft)
10.10.2015 14:51 12,7 C 58 % 1023,0 hPa 0,0 l/m 6,2 km/h (2 Bft) N-NO 29 3 min 394 W/m 4,7 C 12,7 C 17,7 km/h (3 Bft)
10.10.2015 14:54 12,6 C 60 % 1022,9 hPa 0,0 l/m 7,0 km/h (2 Bft) O 90 3 min 390 W/m 5,0 C 12,2 C 16,1 km/h (3 Bft)
10.10.2015 14:57 12,7 C 59 % 1023,0 hPa 0,0 l/m 3,8 km/h (1 Bft) N-NW 330 3 min 387 W/m 4,9 C 12,7 C 12,9 km/h (3 Bft)
10.10.2015 15:00 12,8 C 59 % 1022,9 hPa 0,0 l/m 6,3 km/h (2 Bft) O 92 3 min 387 W/m 5,0 C 12,8 C 14,5 km/h (3 Bft)
10.10.2015 15:03 12,8 C 59 % 1022,9 hPa 0,0 l/m 4,0 km/h (1 Bft) S 182 3 min 381 W/m 5,0 C 12,8 C 9,7 km/h (2 Bft)
10.10.2015 15:06 12,8 C 56 % 1022,9 hPa 0,0 l/m 6,8 km/h (2 Bft) W 273 3 min 380 W/m 4,2 C 12,6 C 20,9 km/h (4 Bft)
10.10.2015 15:09 12,7 C 57 % 1022,9 hPa 0,0 l/m 6,1 km/h (2 Bft) O-SO 115 3 min 373 W/m 4,4 C 12,7 C 16,1 km/h (3 Bft)
10.10.2015 15:12 12,8 C 59 % 1022,9 hPa 0,0 l/m 4,6 km/h (1 Bft) O-NO 60 3 min 360 W/m 5,0 C 12,8 C 14,5 km/h (3 Bft)
10.10.2015 15:15 12,8 C 58 % 1022,9 hPa 0,0 l/m 5,8 km/h (2 Bft) O-NO 69 3 min 352 W/m 4,7 C 12,8 C 19,3 km/h (3 Bft)
10.10.2015 15:18 12,8 C 58 % 1022,9 hPa 0,0 l/m 7,2 km/h (2 Bft) S-SO 165 3 min 334 W/m 4,7 C 12,3 C 16,1 km/h (3 Bft)
10.10.2015 15:21 12,7 C 57 % 1022,9 hPa 0,0 l/m 7,1 km/h (2 Bft) NW 317 3 min 323 W/m 4,4 C 12,3 C 19,3 km/h (3 Bft)
10.10.2015 15:24 12,6 C 57 % 1023,0 hPa 0,0 l/m 6,3 km/h (2 Bft) NO 38 3 min 304 W/m 4,3 C 12,6 C 20,9 km/h (4 Bft)
10.10.2015 15:27 12,6 C 57 % 1022,9 hPa 0,0 l/m 7,2 km/h (2 Bft) W 275 3 min 274 W/m 4,3 C 12,1 C 22,5 km/h (4 Bft)
10.10.2015 15:30 12,7 C 56 % 1023,0 hPa 0,0 l/m 3,8 km/h (1 Bft) O 88 3 min 258 W/m 4,2 C 12,7 C 11,3 km/h (2 Bft)
10.10.2015 15:33 12,7 C 55 % 1023,0 hPa 0,0 l/m 6,6 km/h (2 Bft) SO 140 3 min 267 W/m 3,9 C 12,6 C 17,7 km/h (3 Bft)
10.10.2015 15:36 12,5 C 59 % 1022,9 hPa 0,0 l/m 4,1 km/h (1 Bft) N-NW 327 3 min 220 W/m 4,7 C 12,5 C 9,7 km/h (2 Bft)
10.10.2015 15:39 12,5 C 59 % 1022,9 hPa 0,0 l/m 5,8 km/h (2 Bft) O 87 3 min 213 W/m 4,7 C 12,5 C 12,9 km/h (3 Bft)
10.10.2015 15:42 12,6 C 58 % 1022,8 hPa 0,0 l/m 6,2 km/h (2 Bft) O-NO 57 3 min 241 W/m 4,6 C 12,6 C 20,9 km/h (4 Bft)
10.10.2015 15:45 12,6 C 55 % 1022,8 hPa 0,0 l/m 5,1 km/h (1 Bft) S 170 3 min 255 W/m 3,8 C 12,6 C 12,9 km/h (3 Bft)
10.10.2015 15:48 12,6 C 58 % 1022,9 hPa 0,0 l/m 7,2 km/h (2 Bft) SO 142 3 min 251 W/m 4,6 C 12,1 C 19,3 km/h (3 Bft)
10.10.2015 15:51 12,4 C 58 % 1022,9 hPa 0,0 l/m 7,0 km/h (2 Bft) O-SO 111 3 min 241 W/m 4,4 C 12,0 C 17,7 km/h (3 Bft)
10.10.2015 15:54 12,3 C 56 % 1022,8 hPa 0,0 l/m 6,3 km/h (2 Bft) NO 40 3 min 232 W/m 3,8 C 12,3 C 20,9 km/h (4 Bft)
10.10.2015 15:57 12,4 C 57 % 1022,8 hPa 0,0 l/m 4,4 km/h (1 Bft) SO 140 3 min 225 W/m 4,1 C 12,4 C 12,9 km/h (3 Bft)
10.10.2015 16:00 12,4 C 54 % 1022,8 hPa 0,0 l/m 6,5 km/h (2 Bft) SO 131 3 min 223 W/m 3,4 C 12,4 C 19,3 km/h (3 Bft)
10.10.2015 16:03 12,3 C 56 % 1022,8 hPa 0,0 l/m 6,0 km/h (2 Bft) O 94 3 min 227 W/m 3,8 C 12,3 C 16,1 km/h (3 Bft)
10.10.2015 16:06 12,3 C 55 % 1022,8 hPa 0,0 l/m 4,6 km/h (1 Bft) N-NW 330 3 min 241 W/m 3,5 C 12,3 C 12,9 km/h (3 Bft)
10.10.2015 16:09 12,3 C 56 % 1022,8 hPa 0,0 l/m 5,9 km/h (2 Bft) S 170 3 min 250 W/m 3,8 C 12,3 C 17,7 km/h (3 Bft)
10.10.2015 16:12 12,3 C 56 % 1022,8 hPa 0,0 l/m 5,8 km/h (2 Bft) O 90 3 min 262 W/m 3,8 C 12,3 C 16,1 km/h (3 Bft)
10.10.2015 16:15 12,2 C 57 % 1022,7 hPa 0,0 l/m 7,1 km/h (2 Bft) W-NW 286 3 min 267 W/m 3,9 C 11,7 C 17,7 km/h (3 Bft)
10.10.2015 16:18 12,2 C 58 % 1022,7 hPa 0,0 l/m 5,0 km/h (1 Bft) N-NO 12 3 min 265 W/m 4,2 C 12,2 C 11,3 km/h (2 Bft)
10.10.2015 16:21 12,2 C 58 % 1022,7 hPa 0,0 l/m 5,0 km/h (1 Bft) O 83 3 min 260 W/m 4,2 C 12,2 C 11,3 km/h (2 Bft)
10.10.2015 16:24 12,1 C 57 % 1022,7 hPa 0,0 l/m 5,2 km/h (1 Bft) N 360 3 min 255 W/m 3,8 C 12,1 C 14,5 km/h (3 Bft)
10.10.2015 16:27 12,0 C 59 % 1022,7 hPa 0,0 l/m 6,8 km/h (2 Bft) N 360 3 min 248 W/m 4,2 C 11,7 C 16,1 km/h (3 Bft)
10.10.2015 16:30 12,0 C 57 % 1022,7 hPa 0,0 l/m 7,6 km/h (2 Bft) NO 39 3 min 241 W/m 3,8 C 11,2 C 20,9 km/h (4 Bft)
10.10.2015 16:33 12,2 C 58 % 1022,7 hPa 0,0 l/m 4,4 km/h (1 Bft) O 86 3 min 234 W/m 4,2 C 12,2 C 16,1 km/h (3 Bft)
10.10.2015 16:36 12,2 C 58 % 1022,7 hPa 0,0 l/m 4,3 km/h (1 Bft) O-SO 115 3 min 229 W/m 4,2 C 12,2 C 14,5 km/h (3 Bft)
10.10.2015 16:39 12,1 C 58 % 1022,7 hPa 0,0 l/m 4,6 km/h (1 Bft) N 360 3 min 221 W/m 4,1 C 12,1 C 14,5 km/h (3 Bft)
10.10.2015 16:42 11,9 C 59 % 1022,8 hPa 0,0 l/m 5,2 km/h (1 Bft) NO 46 3 min 214 W/m 4,1 C 11,9 C 17,7 km/h (3 Bft)
10.10.2015 16:45 11,8 C 56 % 1022,7 hPa 0,0 l/m 4,8 km/h (1 Bft) O-SO 108 3 min 211 W/m 3,3 C 11,8 C 11,3 km/h (2 Bft)
10.10.2015 16:48 11,8 C 58 % 1022,7 hPa 0,0 l/m 5,2 km/h (1 Bft) S-SW 202 3 min 204 W/m 3,8 C 11,8 C 14,5 km/h (3 Bft)
10.10.2015 16:51 11,7 C 58 % 1022,6 hPa 0,0 l/m 5,1 km/h (1 Bft) N-NW 342 3 min 197 W/m 3,7 C 11,7 C 17,7 km/h (3 Bft)
10.10.2015 16:54 11,7 C 58 % 1022,7 hPa 0,0 l/m 6,6 km/h (2 Bft) W-NW 282 3 min 190 W/m 3,7 C 11,6 C 19,3 km/h (3 Bft)
10.10.2015 16:57 11,6 C 58 % 1022,7 hPa 0,0 l/m 7,4 km/h (2 Bft) O-NO 65 3 min 185 W/m 3,6 C 10,9 C 14,5 km/h (3 Bft)
10.10.2015 17:00 11,5 C 60 % 1022,6 hPa 0,0 l/m 6,3 km/h (2 Bft) O 86 3 min 176 W/m 4,0 C 11,5 C 12,9 km/h (3 Bft)
10.10.2015 17:03 11,4 C 60 % 1022,6 hPa 0,0 l/m 4,9 km/h (1 Bft) NW 324 3 min 169 W/m 3,9 C 11,4 C 9,7 km/h (2 Bft)
10.10.2015 17:06 11,4 C 61 % 1022,6 hPa 0,0 l/m 6,3 km/h (2 Bft) W 276 3 min 160 W/m 4,2 C 11,4 C 17,7 km/h (3 Bft)
10.10.2015 17:09 11,3 C 59 % 1022,6 hPa 0,0 l/m 4,8 km/h (1 Bft) O 101 3 min 155 W/m 3,6 C 11,3 C 12,9 km/h (3 Bft)
10.10.2015 17:12 11,2 C 60 % 1022,6 hPa 0,0 l/m 5,3 km/h (1 Bft) NO 53 3 min 146 W/m 3,7 C 11,2 C 17,7 km/h (3 Bft)
10.10.2015 17:15 11,2 C 61 % 1022,6 hPa 0,0 l/m 5,3 km/h (1 Bft) W-NW 290 3 min 137 W/m 4,0 C 11,2 C 12,9 km/h (3 Bft)
10.10.2015 17:18 11,2 C 60 % 1022,7 hPa 0,0 l/m 4,9 km/h (1 Bft) W-NW 298 3 min 132 W/m 3,7 C 11,2 C 14,5 km/h (3 Bft)
10.10.2015 17:21 11,1 C 60 % 1022,6 hPa 0,0 l/m 7,0 km/h (2 Bft) SO 128 3 min 123 W/m 3,6 C 10,7 C 17,7 km/h (3 Bft)
10.10.2015 17:24 11,1 C 59 % 1022,7 hPa 0,0 l/m 5,4 km/h (2 Bft) O-SO 123 3 min 118 W/m 3,4 C 11,1 C 12,9 km/h (3 Bft)
10.10.2015 17:27 11,0 C 59 % 1022,7 hPa 0,0 l/m 8,6 km/h (2 Bft) NO 49 3 min 109 W/m 3,3 C 9,5 C 19,3 km/h (3 Bft)
10.10.2015 17:30 10,9 C 60 % 1022,7 hPa 0,0 l/m 8,2 km/h (2 Bft) O-SO 103 3 min 104 W/m 3,4 C 9,7 C 24,1 km/h (4 Bft)
10.10.2015 17:33 10,8 C 62 % 1022,7 hPa 0,0 l/m 5,5 km/h (2 Bft) O-NO 68 3 min 97 W/m 3,8 C 10,8 C 16,1 km/h (3 Bft)
10.10.2015 17:36 10,7 C 59 % 1022,7 hPa 0,0 l/m 6,6 km/h (2 Bft) NO 44 3 min 91 W/m 3,0 C 10,6 C 12,9 km/h (3 Bft)
10.10.2015 17:39 10,6 C 61 % 1022,8 hPa 0,0 l/m 5,7 km/h (2 Bft) NO 43 3 min 84 W/m 3,4 C 10,6 C 17,7 km/h (3 Bft)
10.10.2015 17:42 10,6 C 60 % 1022,8 hPa 0,0 l/m 5,2 km/h (1 Bft) O 85 3 min 79 W/m 3,2 C 10,6 C 11,3 km/h (2 Bft)
10.10.2015 17:45 10,4 C 60 % 1022,9 hPa 0,0 l/m 7,7 km/h (2 Bft) O-SO 123 3 min 72 W/m 3,0 C 9,5 C 25,7 km/h (4 Bft)
10.10.2015 17:48 10,4 C 60 % 1022,8 hPa 0,0 l/m 6,8 km/h (2 Bft) O 99 3 min 67 W/m 3,0 C 10,1 C 14,5 km/h (3 Bft)
10.10.2015 17:51 10,3 C 61 % 1022,8 hPa 0,0 l/m 6,0 km/h (2 Bft) O-SO 102 3 min 60 W/m 3,1 C 10,3 C 16,1 km/h (3 Bft)
10.10.2015 17:54 10,3 C 60 % 1022,9 hPa 0,0 l/m 7,1 km/h (2 Bft) S-SO 165 3 min 54 W/m 2,9 C 9,8 C 19,3 km/h (3 Bft)
10.10.2015 17:57 10,3 C 61 % 1022,9 hPa 0,0 l/m 5,8 km/h (2 Bft) O-SO 114 3 min 49 W/m 3,1 C 10,3 C 16,1 km/h (3 Bft)
10.10.2015 18:00 10,2 C 61 % 1022,9 hPa 0,0 l/m 3,9 km/h (1 Bft) NO 40 0 min 44 W/m 3,0 C 10,2 C 8,0 km/h (2 Bft)
10.10.2015 18:03 10,0 C 62 % 1022,9 hPa 0,0 l/m 5,4 km/h (2 Bft) S-SW 194 0 min 26 W/m 3,1 C 10,0 C 14,5 km/h (3 Bft)
10.10.2015 18:06 9,8 C 64 % 1022,8 hPa 0,0 l/m 6,7 km/h (2 Bft) O-NO 78 0 min 18 W/m 3,3 C 9,6 C 20,9 km/h (4 Bft)
10.10.2015 18:09 9,7 C 62 % 1022,9 hPa 0,0 l/m 6,4 km/h (2 Bft) O-NO 61 0 min 16 W/m 2,8 C 9,7 C 19,3 km/h (3 Bft)
10.10.2015 18:12 9,7 C 64 % 1022,9 hPa 0,0 l/m 6,7 km/h (2 Bft) NO 40 0 min 16 W/m 3,2 C 9,5 C 12,9 km/h (3 Bft)
10.10.2015 18:15 9,6 C 63 % 1022,9 hPa 0,0 l/m 6,4 km/h (2 Bft) O-SO 121 0 min 14 W/m 2,9 C 9,6 C 20,9 km/h (4 Bft)
10.10.2015 18:18 9,6 C 63 % 1022,9 hPa 0,0 l/m 5,4 km/h (2 Bft) N 10 0 min 12 W/m 2,9 C 9,6 C 17,7 km/h (3 Bft)
10.10.2015 18:21 9,5 C 64 % 1022,9 hPa 0,0 l/m 6,4 km/h (2 Bft) W-NW 300 0 min 12 W/m 3,0 C 9,5 C 16,1 km/h (3 Bft)
10.10.2015 18:24 9,4 C 65 % 1022,9 hPa 0,0 l/m 5,2 km/h (1 Bft) O-SO 107 0 min 11 W/m 3,2 C 9,4 C 14,5 km/h (3 Bft)
10.10.2015 18:27 9,3 C 65 % 1023,0 hPa 0,0 l/m 5,8 km/h (2 Bft) S-SW 211 0 min 9 W/m 3,1 C 9,3 C 12,9 km/h (3 Bft)
10.10.2015 18:30 9,3 C 65 % 1022,9 hPa 0,0 l/m 7,1 km/h (2 Bft) O 86 0 min 7 W/m 3,1 C 8,8 C 22,5 km/h (4 Bft)
10.10.2015 18:33 9,2 C 66 % 1022,9 hPa 0,0 l/m 5,2 km/h (1 Bft) NO 55 0 min 7 W/m 3,2 C 9,2 C 11,3 km/h (2 Bft)
10.10.2015 18:36 9,2 C 67 % 1022,8 hPa 0,0 l/m 5,7 km/h (2 Bft) O-NO 71 0 min 5 W/m 3,4 C 9,2 C 12,9 km/h (3 Bft)
10.10.2015 18:39 9,1 C 66 % 1022,9 hPa 0,0 l/m 5,4 km/h (2 Bft) O-SO 102 0 min 0 W/m 3,1 C 9,1 C 16,1 km/h (3 Bft)
10.10.2015 18:42 9,1 C 66 % 1022,9 hPa 0,0 l/m 5,4 km/h (2 Bft) NW 322 0 min 0 W/m 3,1 C 9,1 C 11,3 km/h (2 Bft)
10.10.2015 18:45 9,0 C 67 % 1022,9 hPa 0,0 l/m 4,4 km/h (1 Bft) SW 223 0 min 0 W/m 3,2 C 9,0 C 16,1 km/h (3 Bft)
10.10.2015 18:48 9,0 C 66 % 1022,9 hPa 0,0 l/m 7,4 km/h (2 Bft) SO 132 0 min 0 W/m 3,0 C 8,2 C 22,5 km/h (4 Bft)
10.10.2015 18:51 8,9 C 67 % 1022,9 hPa 0,0 l/m 6,3 km/h (2 Bft) O-NO 78 0 min 0 W/m 3,1 C 8,9 C 20,9 km/h (4 Bft)
10.10.2015 18:54 8,9 C 67 % 1022,9 hPa 0,0 l/m 6,8 km/h (2 Bft) NW 308 0 min 0 W/m 3,1 C 8,6 C 14,5 km/h (3 Bft)
10.10.2015 18:57 8,9 C 67 % 1022,8 hPa 0,0 l/m 7,1 km/h (2 Bft) N 360 0 min 0 W/m 3,1 C 8,4 C 16,1 km/h (3 Bft)
10.10.2015 19:00 8,9 C 67 % 1022,9 hPa 0,0 l/m 7,8 km/h (2 Bft) NO 42 0 min 0 W/m 3,1 C 7,8 C 17,7 km/h (3 Bft)
10.10.2015 19:03 8,9 C 67 % 1022,9 hPa 0,0 l/m 7,6 km/h (2 Bft) N 360 0 min 0 W/m 3,1 C 8,0 C 14,5 km/h (3 Bft)
10.10.2015 19:06 8,9 C 67 % 1023,0 hPa 0,0 l/m 5,7 km/h (2 Bft) S 183 0 min 0 W/m 3,1 C 8,9 C 20,9 km/h (4 Bft)
10.10.2015 19:09 8,8 C 68 % 1023,0 hPa 0,0 l/m 6,6 km/h (2 Bft) NO 40 0 min 0 W/m 3,2 C 8,7 C 14,5 km/h (3 Bft)
10.10.2015 19:12 8,8 C 68 % 1023,0 hPa 0,0 l/m 7,3 km/h (2 Bft) O 99 0 min 0 W/m 3,2 C 8,1 C 16,1 km/h (3 Bft)
10.10.2015 19:15 8,8 C 68 % 1023,0 hPa 0,0 l/m 5,0 km/h (1 Bft) N-NW 336 0 min 0 W/m 3,2 C 8,8 C 16,1 km/h (3 Bft)
10.10.2015 19:18 8,7 C 69 % 1023,0 hPa 0,0 l/m 6,0 km/h (2 Bft) N 360 0 min 0 W/m 3,3 C 8,7 C 17,7 km/h (3 Bft)
10.10.2015 19:21 8,7 C 70 % 1023,1 hPa 0,0 l/m 8,2 km/h (2 Bft) S-SO 165 0 min 0 W/m 3,5 C 7,3 C 16,1 km/h (3 Bft)
10.10.2015 19:24 8,7 C 70 % 1023,1 hPa 0,0 l/m 4,8 km/h (1 Bft) O 89 0 min 0 W/m 3,5 C 8,7 C 11,3 km/h (2 Bft)
10.10.2015 19:27 8,6 C 70 % 1023,1 hPa 0,0 l/m 5,5 km/h (2 Bft) O-SO 103 0 min 0 W/m 3,4 C 8,6 C 16,1 km/h (3 Bft)
10.10.2015 19:30 8,6 C 71 % 1023,1 hPa 0,0 l/m 5,7 km/h (2 Bft) SW 232 0 min 0 W/m 3,6 C 8,6 C 16,1 km/h (3 Bft)
10.10.2015 19:33 8,5 C 70 % 1023,1 hPa 0,0 l/m 5,2 km/h (1 Bft) O-NO 71 0 min 0 W/m 3,3 C 8,5 C 16,1 km/h (3 Bft)
10.10.2015 19:36 8,4 C 71 % 1023,2 hPa 0,0 l/m 4,9 km/h (1 Bft) O-SO 112 0 min 0 W/m 3,5 C 8,4 C 12,9 km/h (3 Bft)
10.10.2015 19:39 8,3 C 72 % 1023,1 hPa 0,0 l/m 4,6 km/h (1 Bft) O-SO 107 0 min 0 W/m 3,6 C 8,3 C 9,7 km/h (2 Bft)
10.10.2015 19:42 8,3 C 72 % 1023,1 hPa 0,0 l/m 7,1 km/h (2 Bft) SO 133 0 min 0 W/m 3,6 C 7,8 C 22,5 km/h (4 Bft)
10.10.2015 19:45 8,3 C 72 % 1023,1 hPa 0,0 l/m 5,1 km/h (1 Bft) O 98 0 min 0 W/m 3,6 C 8,3 C 14,5 km/h (3 Bft)
10.10.2015 19:48 8,3 C 72 % 1023,2 hPa 0,0 l/m 5,8 km/h (2 Bft) O-NO 72 0 min 0 W/m 3,6 C 8,3 C 17,7 km/h (3 Bft)
10.10.2015 19:51 8,2 C 72 % 1023,2 hPa 0,0 l/m 7,0 km/h (2 Bft) S-SW 202 0 min 0 W/m 3,5 C 7,7 C 14,5 km/h (3 Bft)
10.10.2015 19:54 8,2 C 72 % 1023,3 hPa 0,0 l/m 5,3 km/h (1 Bft) NO 55 0 min 0 W/m 3,5 C 8,2 C 9,7 km/h (2 Bft)
10.10.2015 19:57 8,2 C 72 % 1023,2 hPa 0,0 l/m 4,4 km/h (1 Bft) O 94 0 min 0 W/m 3,5 C 8,2 C 14,5 km/h (3 Bft)
10.10.2015 20:00 8,2 C 72 % 1023,2 hPa 0,0 l/m 4,8 km/h (1 Bft) O 80 0 min 0 W/m 3,5 C 8,2 C 14,5 km/h (3 Bft)
10.10.2015 20:03 8,2 C 72 % 1023,3 hPa 0,0 l/m 5,7 km/h (2 Bft) N-NO 17 0 min 0 W/m 3,5 C 8,2 C 11,3 km/h (2 Bft)
10.10.2015 20:06 8,2 C 72 % 1023,2 hPa 0,0 l/m 4,9 km/h (1 Bft) S-SO 167 0 min 0 W/m 3,5 C 8,2 C 17,7 km/h (3 Bft)
10.10.2015 20:09 8,1 C 72 % 1023,3 hPa 0,0 l/m 5,7 km/h (2 Bft) NO 53 0 min 0 W/m 3,4 C 8,1 C 11,3 km/h (2 Bft)
10.10.2015 20:12 8,1 C 72 % 1023,2 hPa 0,0 l/m 4,5 km/h (1 Bft) O-NO 57 0 min 0 W/m 3,4 C 8,1 C 9,7 km/h (2 Bft)
10.10.2015 20:15 8,1 C 72 % 1023,2 hPa 0,0 l/m 5,2 km/h (1 Bft) O-NO 59 0 min 0 W/m 3,4 C 8,1 C 12,9 km/h (3 Bft)
10.10.2015 20:18 8,1 C 72 % 1023,2 hPa 0,0 l/m 4,9 km/h (1 Bft) W-SW 244 0 min 0 W/m 3,4 C 8,1 C 11,3 km/h (2 Bft)
10.10.2015 20:21 8,1 C 71 % 1023,2 hPa 0,0 l/m 3,8 km/h (1 Bft) O-SO 114 0 min 0 W/m 3,2 C 8,1 C 14,5 km/h (3 Bft)
10.10.2015 20:24 8,1 C 71 % 1023,2 hPa 0,0 l/m 7,5 km/h (2 Bft) O-SO 120 0 min 0 W/m 3,2 C 7,2 C 16,1 km/h (3 Bft)
10.10.2015 20:27 8,1 C 71 % 1023,2 hPa 0,0 l/m 6,1 km/h (2 Bft) NO 36 0 min 0 W/m 3,2 C 8,1 C 17,7 km/h (3 Bft)
10.10.2015 20:30 8,1 C 71 % 1023,2 hPa 0,0 l/m 6,3 km/h (2 Bft) O-NO 76 0 min 0 W/m 3,2 C 8,1 C 14,5 km/h (3 Bft)
10.10.2015 20:33 8,1 C 71 % 1023,3 hPa 0,0 l/m 4,9 km/h (1 Bft) O 90 0 min 0 W/m 3,2 C 8,1 C 11,3 km/h (2 Bft)
10.10.2015 20:36 8,0 C 72 % 1023,2 hPa 0,0 l/m 5,5 km/h (2 Bft) O-NO 69 0 min 0 W/m 3,3 C 8,0 C 14,5 km/h (3 Bft)
10.10.2015 20:39 8,0 C 72 % 1023,3 hPa 0,0 l/m 7,8 km/h (2 Bft) O 87 0 min 0 W/m 3,3 C 6,9 C 19,3 km/h (3 Bft)
10.10.2015 20:42 8,0 C 72 % 1023,3 hPa 0,0 l/m 7,5 km/h (2 Bft) S-SO 161 0 min 0 W/m 3,3 C 7,1 C 16,1 km/h (3 Bft)
10.10.2015 20:45 7,9 C 73 % 1023,3 hPa 0,0 l/m 5,1 km/h (1 Bft) SO 130 0 min 0 W/m 3,4 C 7,9 C 14,5 km/h (3 Bft)
10.10.2015 20:48 7,9 C 73 % 1023,3 hPa 0,0 l/m 6,0 km/h (2 Bft) SO 144 0 min 0 W/m 3,4 C 7,9 C 14,5 km/h (3 Bft)
10.10.2015 20:51 7,9 C 73 % 1023,3 hPa 0,0 l/m 5,7 km/h (2 Bft) NW 321 0 min 0 W/m 3,4 C 7,9 C 16,1 km/h (3 Bft)
10.10.2015 20:54 7,9 C 73 % 1023,3 hPa 0,0 l/m 4,4 km/h (1 Bft) N 5 0 min 0 W/m 3,4 C 7,9 C 12,9 km/h (3 Bft)
10.10.2015 20:57 7,8 C 74 % 1023,3 hPa 0,0 l/m 3,8 km/h (1 Bft) NO 49 0 min 0 W/m 3,5 C 7,8 C 9,7 km/h (2 Bft)
10.10.2015 21:00 7,8 C 74 % 1023,4 hPa 0,0 l/m 5,7 km/h (2 Bft) O 86 0 min 0 W/m 3,5 C 7,8 C 17,7 km/h (3 Bft)
10.10.2015 21:03 7,8 C 74 % 1023,4 hPa 0,0 l/m 5,6 km/h (2 Bft) NO 41 0 min 0 W/m 3,5 C 7,8 C 19,3 km/h (3 Bft)
10.10.2015 21:06 7,8 C 74 % 1023,4 hPa 0,0 l/m 6,0 km/h (2 Bft) S-SO 153 0 min 0 W/m 3,5 C 7,8 C 12,9 km/h (3 Bft)
10.10.2015 21:09 7,8 C 74 % 1023,4 hPa 0,0 l/m 4,1 km/h (1 Bft) W 259 0 min 0 W/m 3,5 C 7,8 C 11,3 km/h (2 Bft)
10.10.2015 21:12 7,7 C 74 % 1023,4 hPa 0,0 l/m 5,4 km/h (2 Bft) O-SO 107 0 min 0 W/m 3,4 C 7,7 C 14,5 km/h (3 Bft)
10.10.2015 21:15 7,7 C 74 % 1023,3 hPa 0,0 l/m 4,8 km/h (1 Bft) S-SO 158 0 min 0 W/m 3,4 C 7,7 C 12,9 km/h (3 Bft)
10.10.2015 21:18 7,6 C 75 % 1023,4 hPa 0,0 l/m 4,0 km/h (1 Bft) N-NW 334 0 min 0 W/m 3,5 C 7,6 C 14,5 km/h (3 Bft)
10.10.2015 21:21 7,6 C 75 % 1023,4 hPa 0,0 l/m 4,2 km/h (1 Bft) O-NO 61 0 min 0 W/m 3,5 C 7,6 C 14,5 km/h (3 Bft)
10.10.2015 21:24 7,5 C 75 % 1023,3 hPa 0,0 l/m 3,5 km/h (1 Bft) O 86 0 min 0 W/m 3,4 C 7,5 C 6,4 km/h (2 Bft)
10.10.2015 21:27 7,5 C 75 % 1023,4 hPa 0,0 l/m 6,1 km/h (2 Bft) NO 34 0 min 0 W/m 3,4 C 7,5 C 16,1 km/h (3 Bft)
10.10.2015 21:30 7,4 C 75 % 1023,3 hPa 0,0 l/m 4,7 km/h (1 Bft) NO 46 0 min 0 W/m 3,3 C 7,4 C 12,9 km/h (3 Bft)
10.10.2015 21:33 7,4 C 76 % 1023,3 hPa 0,0 l/m 4,5 km/h (1 Bft) N-NO 30 0 min 0 W/m 3,5 C 7,4 C 12,9 km/h (3 Bft)
10.10.2015 21:36 7,4 C 75 % 1023,4 hPa 0,0 l/m 3,6 km/h (1 Bft) N-NO 25 0 min 0 W/m 3,3 C 7,4 C 11,3 km/h (2 Bft)
10.10.2015 21:39 7,3 C 76 % 1023,4 hPa 0,0 l/m 3,0 km/h (1 Bft) O-NO 67 0 min 0 W/m 3,4 C 7,3 C 6,4 km/h (2 Bft)
10.10.2015 21:42 7,3 C 76 % 1023,4 hPa 0,0 l/m 5,4 km/h (2 Bft) N-NO 32 0 min 0 W/m 3,4 C 7,3 C 9,7 km/h (2 Bft)
10.10.2015 21:45 7,3 C 76 % 1023,4 hPa 0,0 l/m 5,4 km/h (2 Bft) O-NO 61 0 min 0 W/m 3,4 C 7,3 C 14,5 km/h (3 Bft)
10.10.2015 21:48 7,3 C 77 % 1023,4 hPa 0,0 l/m 3,8 km/h (1 Bft) NO 36 0 min 0 W/m 3,5 C 7,3 C 14,5 km/h (3 Bft)
10.10.2015 21:51 7,3 C 76 % 1023,4 hPa 0,0 l/m 4,4 km/h (1 Bft) NO 40 0 min 0 W/m 3,4 C 7,3 C 11,3 km/h (2 Bft)
10.10.2015 21:54 7,3 C 77 % 1023,4 hPa 0,0 l/m 5,3 km/h (1 Bft) O 99 0 min 0 W/m 3,5 C 7,3 C 17,7 km/h (3 Bft)
10.10.2015 21:57 7,3 C 76 % 1023,3 hPa 0,0 l/m 5,6 km/h (2 Bft) O 94 0 min 0 W/m 3,4 C 7,3 C 17,7 km/h (3 Bft)
10.10.2015 22:00 7,3 C 75 % 1023,3 hPa 0,0 l/m 5,3 km/h (1 Bft) S-SO 167 0 min 0 W/m 3,2 C 7,3 C 16,1 km/h (3 Bft)
10.10.2015 22:03 7,3 C 75 % 1023,3 hPa 0,0 l/m 6,0 km/h (2 Bft) N-NW 338 0 min 0 W/m 3,2 C 7,3 C 14,5 km/h (3 Bft)
10.10.2015 22:06 7,3 C 75 % 1023,3 hPa 0,0 l/m 5,2 km/h (1 Bft) S-SW 211 0 min 0 W/m 3,2 C 7,3 C 14,5 km/h (3 Bft)
10.10.2015 22:09 7,4 C 76 % 1023,4 hPa 0,0 l/m 3,9 km/h (1 Bft) SO 136 0 min 0 W/m 3,5 C 7,4 C 11,3 km/h (2 Bft)
10.10.2015 22:12 7,3 C 76 % 1023,4 hPa 0,0 l/m 3,9 km/h (1 Bft) O-NO 59 0 min 0 W/m 3,4 C 7,3 C 9,7 km/h (2 Bft)
10.10.2015 22:15 7,3 C 77 % 1023,5 hPa 0,0 l/m 3,1 km/h (1 Bft) O-NO 63 0 min 0 W/m 3,5 C 7,3 C 8,0 km/h (2 Bft)
10.10.2015 22:18 7,2 C 77 % 1023,3 hPa 0,0 l/m 7,0 km/h (2 Bft) O 101 0 min 0 W/m 3,4 C 6,7 C 20,9 km/h (4 Bft)
10.10.2015 22:21 7,3 C 76 % 1023,3 hPa 0,0 l/m 7,3 km/h (2 Bft) O 82 0 min 0 W/m 3,4 C 6,6 C 16,1 km/h (3 Bft)
10.10.2015 22:24 7,3 C 75 % 1023,4 hPa 0,0 l/m 3,4 km/h (1 Bft) W 271 0 min 0 W/m 3,2 C 7,3 C 8,0 km/h (2 Bft)
10.10.2015 22:27 7,3 C 75 % 1023,4 hPa 0,0 l/m 7,1 km/h (2 Bft) O-SO 123 0 min 0 W/m 3,2 C 6,7 C 14,5 km/h (3 Bft)
10.10.2015 22:30 7,3 C 75 % 1023,4 hPa 0,0 l/m 5,0 km/h (1 Bft) NW 323 0 min 0 W/m 3,2 C 7,3 C 11,3 km/h (2 Bft)
10.10.2015 22:33 7,3 C 74 % 1023,4 hPa 0,0 l/m 6,8 km/h (2 Bft) O-NO 59 0 min 0 W/m 3,0 C 7,0 C 16,1 km/h (3 Bft)
10.10.2015 22:36 7,3 C 75 % 1023,4 hPa 0,0 l/m 7,5 km/h (2 Bft) N-NO 27 0 min 0 W/m 3,2 C 6,4 C 17,7 km/h (3 Bft)
10.10.2015 22:39 7,4 C 75 % 1023,4 hPa 0,0 l/m 4,5 km/h (1 Bft) NO 49 0 min 0 W/m 3,3 C 7,4 C 11,3 km/h (2 Bft)
10.10.2015 22:42 7,4 C 74 % 1023,5 hPa 0,0 l/m 8,2 km/h (2 Bft) SO 133 0 min 0 W/m 3,1 C 6,0 C 20,9 km/h (4 Bft)
10.10.2015 22:45 7,4 C 74 % 1023,4 hPa 0,0 l/m 4,9 km/h (1 Bft) S 190 0 min 0 W/m 3,1 C 7,4 C 11,3 km/h (2 Bft)
10.10.2015 22:48 7,4 C 74 % 1023,4 hPa 0,0 l/m 7,7 km/h (2 Bft) S-SO 162 0 min 0 W/m 3,1 C 6,4 C 19,3 km/h (3 Bft)
10.10.2015 22:51 7,4 C 75 % 1023,4 hPa 0,0 l/m 3,7 km/h (1 Bft) O-NO 76 0 min 0 W/m 3,3 C 7,4 C 11,3 km/h (2 Bft)
10.10.2015 22:54 7,3 C 75 % 1023,4 hPa 0,0 l/m 3,4 km/h (1 Bft) W-SW 253 0 min 0 W/m 3,2 C 7,3 C 11,3 km/h (2 Bft)
10.10.2015 22:57 7,3 C 74 % 1023,4 hPa 0,0 l/m 6,0 km/h (2 Bft) O 89 0 min 0 W/m 3,0 C 7,3 C 14,5 km/h (3 Bft)
10.10.2015 23:00 7,3 C 73 % 1023,4 hPa 0,0 l/m 9,6 km/h (2 Bft) O-NO 60 0 min 0 W/m 2,8 C 4,9 C 22,5 km/h (4 Bft)
10.10.2015 23:03 7,3 C 72 % 1023,4 hPa 0,0 l/m 8,0 km/h (2 Bft) O 88 0 min 0 W/m 2,6 C 6,0 C 19,3 km/h (3 Bft)
10.10.2015 23:06 7,4 C 72 % 1023,3 hPa 0,0 l/m 8,3 km/h (2 Bft) S 180 0 min 0 W/m 2,7 C 5,9 C 17,7 km/h (3 Bft)
10.10.2015 23:09 7,4 C 72 % 1023,3 hPa 0,0 l/m 9,8 km/h (2 Bft) SO 140 0 min 0 W/m 2,7 C 4,9 C 20,9 km/h (4 Bft)
10.10.2015 23:12 7,4 C 71 % 1023,3 hPa 0,0 l/m 6,9 km/h (2 Bft) O-NO 57 0 min 0 W/m 2,5 C 7,0 C 19,3 km/h (3 Bft)
10.10.2015 23:15 7,4 C 72 % 1023,4 hPa 0,0 l/m 7,4 km/h (2 Bft) O-SO 108 0 min 0 W/m 2,7 C 6,6 C 19,3 km/h (3 Bft)
10.10.2015 23:18 7,3 C 74 % 1023,4 hPa 0,0 l/m 5,9 km/h (2 Bft) O 92 0 min 0 W/m 3,0 C 7,3 C 17,7 km/h (3 Bft)
10.10.2015 23:21 7,2 C 73 % 1023,4 hPa 0,0 l/m 8,3 km/h (2 Bft) O-NO 58 0 min 0 W/m 2,7 C 5,7 C 20,9 km/h (4 Bft)
10.10.2015 23:24 7,2 C 73 % 1023,4 hPa 0,0 l/m 8,2 km/h (2 Bft) SO 124 0 min 0 W/m 2,7 C 5,8 C 25,7 km/h (4 Bft)
10.10.2015 23:27 7,2 C 72 % 1023,4 hPa 0,0 l/m 7,2 km/h (2 Bft) W-NW 298 0 min 0 W/m 2,5 C 6,5 C 16,1 km/h (3 Bft)
10.10.2015 23:30 7,2 C 72 % 1023,4 hPa 0,0 l/m 7,1 km/h (2 Bft) O-SO 115 0 min 0 W/m 2,5 C 6,6 C 20,9 km/h (4 Bft)
10.10.2015 23:33 7,2 C 72 % 1023,5 hPa 0,0 l/m 8,4 km/h (2 Bft) N-NO 29 0 min 0 W/m 2,5 C 5,6 C 17,7 km/h (3 Bft)
10.10.2015 23:36 7,1 C 72 % 1023,5 hPa 0,0 l/m 8,1 km/h (2 Bft) SO 130 0 min 0 W/m 2,4 C 5,7 C 16,1 km/h (3 Bft)
10.10.2015 23:39 7,1 C 72 % 1023,4 hPa 0,0 l/m 5,2 km/h (1 Bft) N-NO 19 0 min 0 W/m 2,4 C 7,1 C 14,5 km/h (3 Bft)
10.10.2015 23:42 7,1 C 72 % 1023,5 hPa 0,0 l/m 8,2 km/h (2 Bft) S 175 0 min 0 W/m 2,4 C 5,7 C 22,5 km/h (4 Bft)
10.10.2015 23:45 7,1 C 72 % 1023,5 hPa 0,0 l/m 8,4 km/h (2 Bft) S 175 0 min 0 W/m 2,4 C 5,5 C 17,7 km/h (3 Bft)
10.10.2015 23:48 7,1 C 72 % 1023,5 hPa 0,0 l/m 7,3 km/h (2 Bft) NO 35 0 min 0 W/m 2,4 C 6,4 C 17,7 km/h (3 Bft)
10.10.2015 23:51 7,1 C 72 % 1023,4 hPa 0,0 l/m 10,2 km/h (2 Bft) O 98 0 min 0 W/m 2,4 C 4,3 C 25,7 km/h (4 Bft)
10.10.2015 23:54 7,1 C 71 % 1023,4 hPa 0,0 l/m 7,1 km/h (2 Bft) O 83 0 min 0 W/m 2,2 C 6,5 C 19,3 km/h (3 Bft)
10.10.2015 23:57 7,1 C 71 % 1023,4 hPa 0,0 l/m 9,4 km/h (2 Bft) SO 131 0 min 0 W/m 2,2 C 4,8 C 19,3 km/h (3 Bft)
_ Min-Zeit 08:12 16:00 16:51 - 07:30 - - - - 23:54 23:51 07:24
Minimum _ 6,8 C 54 % 1022,6 hPa - 0,4 km/h (0 Bft) - - - - 2,2 C 4,3 C 1,6 km/h (1 Bft)
_ Max-Zeit 14:42 04:24 09:45 00:00 23:51 - - 10:03 13:15 00:00 14:42 13:15
Maximum _ 13,0 C 90 % 1024,4 hPa 0,0 l/m 10,2 km/h
O (2 Bft)
- - 3 min 515 W/m 9,3 C 13,0 C 25,7 km/h
O-SO (4 Bft)
Durchschnitt _ 9,5 C 75 % 1023,4 hPa #0,0 l/m 4,9 km/h (1 Bft) O-SO - #7:27 h 213 W/m 5,3 C 9,4 C 12,8 km/h (3 Bft)
copyright by Holger Just